     2              OBSERVATION DATA    GPS                 RINEX VERSION / TYPE
teqc 1997Sep10 19970910 19:03:05UTC                         PGM / RUN BY / DATE
                                                            COMMENT
BIT 2 OF LLI FLAGS DATA COLLECTED UNDER A-S CONDITION       COMMENT
BIT 2 OF LLI FLAGS DATA COLLECTED UNDER A-S CONDITION       COMMENT
Original Marker Name: unknown                               COMMENT
Campaign Name: Southern California GPS Survey March - A     COMMENT
4-Character Station Name: LAKE                              COMMENT
6-Character Antenna Code: TI4100                            COMMENT
Vertical Measurement Point: PAE                             COMMENT
Vertical Offset to Rinex Ref. Point: 0.0000                 COMMENT
Radial Measurement Point: RRP                               COMMENT
Radial Offset to Rinex Ref. Point: 0.0000                   COMMENT
Antenna Height from Field Measurement: 1.4332 m             COMMENT
Original XYZ: 0.0000 0.0000 0.0000                          COMMENT
New XYZ position is based on association with SCEC monument COMMENT
E1D0F6T0+0011. Position of that monument is believed to be  COMMENT
valid to within 1 m horizontally; vertical accuracy         COMMENT
should be no worse than 3-times this value.                 COMMENT
                                                            COMMENT
Revised Rinex header created by UCSD GPS archive for        COMMENT
GSAC on 12-Apr-1999 (1999:102) 04:30:16 GMT                 COMMENT
For assistance contact dagnew@ucsd.edu or hjohnson@ucsd.edu COMMENT
                                                            COMMENT
(LAKE ELSINORE)                                             MARKER NAME
unknown NATIONAL GEODETIC SURVEY                            OBSERVER / AGENCY
0001 TI 4100 GSI TI4100                                     REC # / TYPE / VERS
2003 TI 4100                                                ANT # / TYPE
 -2443351.0000 -4722859.0000  3511926.0000                  APPROX POSITION XYZ
        1.4332        0.0000        0.0000                  ANTENNA: DELTA H/E/N
     1     1     0                                          WAVELENGTH FACT L1/2
     6    L1    L2    P1    P2    D1    D2                  # / TYPES OF OBSERV
     0                                                      INTERVAL
  1988     3    27     4    38   47.000000                  TIME OF FIRST OBS
  1988     3    27     7    36   11.000000                  TIME OF LAST OBS
     0                                                      # OF SATELLITES
                                                            END OF HEADER
 88  3 27  4 38 47.0800000  0  4G 6G 9G11G13
  27226186.564 9 -40844721.770 9  18822461.906    18822464.732        -601.745
      -476.983
  20948819.813 8 -57813352.839 8  19238501.790    19238504.012        2111.697
      1653.687
  22451531.490 8 -44574657.128 8  18977972.501    18977977.319         106.864
        80.357
   5596664.452 9 -22058403.614 8  20848592.046    20848595.817        3024.649
      2359.386
 88  3 27  4 43 11.0800000  0  4G 6G 9G11G13
  27409143.813 9 -40702157.700 9  18857277.784    18857279.514        -763.401
      -606.521
  20405819.881 9 -58236469.456 8  19135170.009    19135174.527        2004.434
      1563.885
  22445687.719 8 -44579210.588 8  18976862.147    18976865.863         -35.829
       -39.917
   4811759.448 9 -22670017.491 9  20699228.732    20699234.442        2916.031
      2279.378
 88  3 27  4 43 41.0800000  0  4G 6G 9G11G13
  27432573.549 9 -40683900.764 9  18861735.054    18861738.397        -789.605
      -612.940
  20346008.445 9 -58283075.758 8  19123789.142    19123792.365        1985.910
      1550.271
  22447536.177 8 -44577770.218 8  18977213.577    18977217.437         -71.913
       -67.929
   4724421.657 8 -22738072.873 9  20682608.389    20682613.412        2901.470
      2267.926
 88  3 27  4 44 11.0800000  0  4G 6G 9G11G13
  27456543.873 8 -40665222.598 9  18866297.571    18866299.621        -810.091
      -635.067
  20286592.731 9 -58329373.689 8  19112483.349    19112485.678        1980.240
      1541.292
  22449892.555 9 -44575934.073 8  18977661.339    18977665.327         -91.809
       -70.825
   4637468.066 8 -22805828.866 8  20666060.919    20666065.849        2888.384
      2243.108
 88  3 27  4 44 41.0800000  0  4G 6G 9G11G13
  27481055.542 9 -40646122.608 8  18870962.658    18870962.632        -823.903
      -633.203
  20227575.764 9 -58375360.929 8  19101252.452    19101255.196        1986.532
      1531.257
  22452755.857 9 -44573702.894 8  18978206.006    18978209.666        -105.445
       -81.475
   4550900.788 6 -22873283.830 9  20649587.945    20649592.874        2902.115
      2240.889
 88  3 27  4 45 11.0800000  0  4G 6G 9G11G13
  27506109.299 9 -40626600.219 9  18875728.260    18875731.122        -851.374
      -650.652
  20168960.457 9 -58421035.164 8  19090098.301    19090100.651        1955.089
      1522.228
  22456125.164 9 -44571077.445 8  18978848.428    18978850.914        -115.070
       -85.893
   4464721.390 8 -22940436.565 8  20633189.378    20633193.625        2860.258
      2222.720
 88  3 27  4 45 41.0800000  0  4G 6G 9G11G13
  27531705.401 9 -40606655.216 9  18880599.097    18880602.206        -850.218
      -677.557
  20110749.288 8 -58466394.485 8  19079022.003    19079023.135        1939.531
      1508.303
  22459998.441 9 -44568059.300 8  18979585.637    18979588.180        -123.156
      -103.963
   4378930.503 9 -23007286.571 8  20616864.359    20616868.184        2869.939
      2225.026
 88  3 27  4 46 11.0800000  0  4G 6G 9G11G13
  27557843.994 9 -40586287.474 9  18885573.579    18885576.330        -866.549
      -676.768
  20052944.701 8 -58511437.014 9  19068021.770    19068022.940        1926.995
      1505.979
  22464374.138 9 -44564649.664 8  18980417.054    18980421.043        -154.360
      -102.117
   4293529.628 9 -23073832.694 8  20600612.570    20600615.314        2832.380
      2200.494
 88  3 27  4 46 41.0800000  0  4G 6G 9G11G13
  27584525.756 8 -40565496.504 9  18890651.694    18890653.234        -896.589
      -680.540
  19995549.380 8 -58556160.630 8  19057099.825    19057102.011        1916.166
      1486.499
  22469250.988 9 -44560849.512 8  18981345.797    18981348.113        -163.698
      -127.165
   4208519.972 8 -23140073.936 8  20584434.750    20584440.348        2839.341
      2202.190
 88  3 27  4 47 11.0800000  0  4G 6G 9G11G13
  27611751.282 8 -40544281.816 9  18895832.414    18895833.491        -922.426
      -697.870
  19938566.291 9 -58600563.019 9  19046256.437    19046258.766        1902.546
      1473.375
  22474627.848 9 -44556659.743 8  18982369.387    18982371.345        -194.247
      -136.293
   4123903.933 9 -23206008.469 8  20568333.623    20568337.426        2835.546
      2192.844
 88  3 27  4 47 41.0800000  0  4G 6G 9G11G13
  27639519.668 8 -40522644.109 8  18901116.118    18901118.492        -933.765
      -738.589
  19881996.833 9 -58644643.103 8  19035490.897    19035493.827        1888.926
      1473.226
  22480501.703 9 -44552082.699 8  18983485.960    18983489.705        -191.584
      -149.920
   4039680.954 9 -23271636.742 7  20552307.584    20552311.062        2807.300
      2184.363
 88  3 27  4 48 11.0800000  0  4G 6G 9G11G13
  27667833.586 9 -40500581.340 8  18906503.670    18906506.221        -948.470
      -742.479
  19825846.041 9 -58688396.938 8  19024806.730    19024808.150        1856.765
      1454.243
  22486873.295 8 -44547117.812 8  18984699.346    18984702.649        -214.558
      -171.699
   3955854.612 6 -23336955.956 8  20536354.598    20536359.934        2785.132
      2189.564
 88  3 27  4 48 41.0800000  0  4G 6G 9G11G13
  27696693.289 9 -40478093.270 8  18911995.824    18911999.329        -983.326
      -755.329
  19770116.394 8 -58731822.623 9  19014201.779    19014203.099        1851.550
      1440.722
  22493741.480 9 -44541765.964 7  18986005.515    18986009.661        -246.703
      -173.942
   3872426.677 9 -23401964.693 9  20520479.327    20520483.005        2781.822
      2176.117
 88  3 27  4 49 11.0800000  0  4G 6G 9G11G13
  27726098.625 9 -40455180.026 8  18917591.198    18917594.178        -985.144
      -772.342
  19714809.927 9 -58774918.557 8  19003676.381    19003678.330        1825.912
      1438.242
  22501103.911 9 -44536028.997 8  18987407.233    18987410.822        -256.926
      -193.945
   3789397.703 9 -23466662.530 8  20504679.180    20504682.964        2761.886
      2143.464
 88  3 27  4 49 41.0800000  0  4G 6G 9G11G13
  27756049.881 9 -40431841.389 8  18923291.563    18923293.380       -1012.153
      -779.090
  19659929.406 8 -58817682.592 8  18993233.394    18993235.443        1828.576
      1429.562
  22508959.462 9 -44529907.776 8  18988901.560    18988904.877        -267.699
      -208.852
   3706769.182 6 -23531048.358 8  20488957.014    20488959.733        2751.352
      2140.754
 88  3 27  4 50 11.0800000  0  4G 6G 9G11G13
  27786547.399 8 -40408077.096 8  18929094.856    18929096.781       -1021.372
      -802.535
  19605477.413 8 -58860112.705 9  18982872.147    18982873.825        1816.630
      1403.197
  22517306.474 8 -44523403.599 9  18990488.986    18990493.090        -287.826
      -224.523
   3624542.516 9 -23595121.063 8  20473309.393    20473312.713        2740.922
      2133.130
 88  3 27  4 50 41.0800000  0  4G 6G 9G11G13
  27817591.885 9 -40383886.612 8  18935003.218    18935003.823       -1042.081
      -803.871
  19551457.035 9 -58902206.484 8  18972591.540    18972594.248        1796.176
      1397.194
  22526143.565 9 -44516517.547 7  18992171.310    18992175.141        -311.893
      -251.857
   3542719.316 9 -23658879.366 9  20457739.275    20457741.261        2724.742
      2116.632
 88  3 27  4 51 11.0800000  0  4G 6G 9G11G13
  27849182.695 9 -40359270.428 8  18941014.184    18941016.520       -1067.822
      -824.799
  19497870.277 8 -58943962.389 8  18962394.535    18962397.143        1785.562
      1386.960
  22535468.237 9 -44509251.551 8  18993946.356    18993949.329        -314.245
      -244.338
   3461300.272 9 -23722322.749 8  20442244.491    20442248.566        2712.063
      2120.118
 88  3 27  4 51 41.0800000  0  4G 6G 9G11G13
  27881321.435 9 -40334227.261 8  18947130.029    18947131.627       -1083.268
      -842.297
  19444720.773 9 -58985377.561 8  18952280.175    18952282.875        1779.294
      1370.730
  22545280.560 9 -44501605.569 8  18995814.553    18995817.354        -323.599
      -251.410
   3380287.680 5 -23785449.406 8  20426826.445    20426832.537        2727.573
      2094.884
 88  3 27  4 52 11.0800000  0  4G 6G 9G11G13
  27914008.427 9 -40308756.899 8  18953348.857    18953351.443       -1091.418
      -860.870
  19392011.405 9 -59026449.780 8  18942251.293    18942252.841        1744.997
      1359.029
  22555578.881 8 -44493580.904 8  18997773.613    18997776.786        -344.676
      -273.077
   3299683.292 6 -23848257.972 8  20411488.418    20411493.304        2672.781
      2083.718
 88  3 27  4 52 41.0800000  0  4G 6G 9G11G13
  27947242.981 9 -40282859.866 8  18959674.644    18959676.390       -1110.716
      -864.574
  19339743.889 9 -59067177.698 8  18932303.551    18932305.556        1726.735
      1348.745
  22566360.855 9 -44485179.348 8  18999824.597    18999827.999        -368.662
      -286.344
   3219487.118 6 -23910748.466 8  20396228.822    20396231.634        2707.366
      2079.213
 88  3 27  4 53 11.0800000  0  4G 6G 9G11G13
  27981025.720 9 -40256535.664 8  18966102.687    18966104.069       -1133.682
      -889.155
  19287921.396 9 -59107558.862 7  18922442.375    18922443.547        1716.608
      1343.389
  22577625.056 8 -44476402.049 9  19001967.296    19001971.757        -378.319
      -291.377
   3139700.549 9 -23972919.792 9  20381046.290    20381051.059        2647.757
      2064.312
 88  3 27  4 53 41.0800000  0  4G 6G 9G11G13
  28015356.766 9 -40229784.206 8  18972635.543    18972636.230       -1159.774
      -890.939
  19236546.521 9 -59147591.207 8  18912665.636    18912667.743        1711.313
      1341.867
  22589369.931 8 -44467250.189 7  19004202.754    19004207.114        -402.147
      -324.067
   3060325.556 9 -24034770.394 8  20365941.855    20365945.902        2631.075
      2056.489
 88  3 27  4 54 11.0800000  0  4G 6G 9G11G13
  28050236.358 9 -40202605.326 8  18979272.980    18979274.243       -1175.875
      -917.913
  19185621.859 9 -59187272.758 8  18902976.255    18902977.461        1694.088
      1316.875
  22601594.038 8 -44457724.894 8  19006528.835    19006532.181        -414.690
      -308.247
   2981362.789 9 -24096299.790 8  20350915.791    20350918.847        2626.825
      2049.070
 88  3 27  4 54 41.0800000  0  4G 6G 9G11G13
  28085664.113 8 -40174999.308 8  18986015.013    18986016.326       -1181.114
      -918.571
  19135149.506 8 -59226601.850 8  18893371.002    18893373.196        1666.967
      1318.584
  22614295.228 9 -44447827.870 9  19008946.558    19008950.204        -415.512
      -329.859
   2902813.227 9 -24157507.213 8  20335967.179    20335971.440        2600.549
      2042.129
 88  3 27  4 55 11.0800000  0  4G 6G 9G11G13
  28121639.741 9 -40146966.349 8  18992860.476    18992863.064       -1184.989
      -935.342
  19085131.919 9 -59265576.573 8  18883852.596    18883856.242        1662.127
      1284.625
  22627471.346 8 -44437560.742 8  19011453.914    19011456.558        -446.165
      -354.080
   2824678.393 9 -24218391.455 8  20321098.873    20321103.295        2592.104
      2029.465
 88  3 27  4 55 41.0800000  0  4G 6G 9G11G13
  28158163.405 9 -40118506.366 7  18999810.324    18999812.541       -1215.276
      -958.911
  19035571.751 9 -59304194.870 7  18874421.084    18874423.741        1642.741
      1273.148
  22641120.990 9 -44426924.655 8  19014050.959    19014053.460        -451.125
      -353.359
   2746959.278 9 -24278951.753 8  20306309.775    20306313.330        2588.516
      2007.810
 88  3 27  4 56 11.0800000  0  4G 6G 9G11G13
  28195235.692 9 -40089618.882 8  19006866.141    19006867.467       -1266.551
      -972.606
  18986472.060 9 -59342454.358 8  18865078.057    18865079.550        1633.029
      1270.352
  22655242.774 8 -44415920.662 8  19016738.240    19016741.742        -478.190
      -377.338
   2669657.033 9 -24339187.240 7  20291599.207    20291602.083        2561.618
      2006.456
 88  3 27  4 56 41.0800000  0  4G 6G 9G11G13
  28232857.339 9 -40060303.326 9  19014024.597    19014028.078       -1271.511
      -983.878
  18937835.967 9 -59380352.620 8  18855822.474    18855825.003        1621.394
      1270.905
  22669835.875 8 -44404549.392 8  19019514.605    19019518.950        -471.380
      -378.438
   2592773.776 9 -24399096.240 8  20276969.243    20276973.034        2555.965
      1999.266
 88  3 27  4 57 11.0800000  0  4G 6G 9G11G13
  28271028.375 8 -40030559.680 8  19021287.694    19021290.763       -1288.784
      -996.859
  18889666.150 9 -59417887.532 8  18846657.109    18846659.545        1589.186
      1234.816
  22684898.620 9 -44392812.205 8  19022382.655    19022385.643        -512.440
      -388.287
   2516310.759 9 -24458677.799 8  20262418.549    20262421.382        2523.748
      1986.423
 88  3 27  4 57 41.0800000  0  4G 6G 9G11G13
  28309748.149 9 -40000388.443 8  19028656.665    19028659.123       -1291.567
     -1014.730
  18841964.768 9 -59455057.429 9  18837579.920    18837581.942        1596.913
      1234.306
  22700428.669 9 -44380710.852 8  19025336.827    19025340.944        -524.537
      -402.802
   2440268.128 9 -24517931.754 8  20247947.274    20247950.794        2524.051
      1965.084
 88  3 27  4 58 11.0800000  0  4G 6G 9G11G13
  28349016.963 8 -39969789.390 8  19036128.685    19036131.702       -1325.187
     -1019.204
  18794734.417 9 -59491860.295 9  18828592.198    18828593.082        1559.617
      1220.518
  22716424.328 9 -44368246.691 8  19028380.971    19028384.531        -533.157
      -411.203
   2364647.382 9 -24576856.967 8  20233557.542    20233562.428        2515.032
      1960.915
 88  3 27  4 58 41.0800000  0  4G 6G 9G11G13
  28388834.907 9 -39938762.421 8  19043706.128    19043709.020       -1330.386
     -1049.695
  18747978.178 9 -59528293.714 8  18819694.163    18819696.865        1538.477
      1217.473
  22732883.975 8 -44355421.003 9  19031513.571    19031516.086        -555.892
      -425.762
   2289449.970 8 -24635452.315 7  20219247.937    20219252.448        2501.611
      1938.893
 88  3 27  4 59 11.0800000  0  4G 6G 9G11G13
  28429201.661 8 -39907307.831 7  19051387.833    19051390.688       -1361.143
     -1043.823
  18701697.946 9 -59564356.230 9  18810887.572    18810889.686        1531.954
      1194.146
  22749806.055 8 -44342234.948 9  19034733.378    19034735.792        -576.227
      -439.656
   2214676.341 9 -24693717.463 7  20205019.497    20205022.605        2490.328
      1942.069
 88  3 27  4 59 41.0800000  0  4G 6G 9G11G13
  28470117.584 9 -39875425.325 8  19059174.089    19059176.074       -1363.432
     -1072.077
  18655897.003 8 -59600045.276 7  18802172.302    18802173.409        1505.271
      1188.821
  22767189.278 8 -44328689.571 8  19038040.754    19038044.098        -584.696
      -467.482
   2140328.255 6 -24751651.013 8  20190869.982    20190874.929        2492.345
      1922.576
 88  3 27  5  0 11.0800000  0  4G 6G 9G11G13
  28511583.318 9 -39843114.375 8  19067063.834    19067065.952       -1399.819
     -1078.427
  18610578.439 9 -59635358.416 7  18793548.293    18793550.393        1502.927
      1176.344
  22785032.220 8 -44314785.975 8  19041436.012    19041440.144        -603.412
      -475.560
   2066407.911 9 -24809251.233 8  20176805.318    20176807.998        2459.292
      1918.214
 88  3 27  5  0 41.0800000  0  4G 6G 9G11G13
  28553598.977 9 -39810374.903 7  19075059.499    19075062.510       -1407.338
     -1091.141
  18565745.181 8 -59670293.416 8  18785017.172    18785017.956        1471.348
      1165.439
  22803333.325 9 -44300525.373 8  19044919.532    19044922.104        -602.518
      -473.528
   1992916.531 6 -24866517.221 8  20162820.029    20162822.740        2469.905
      1901.393
 88  3 27  5  1 11.0800000  0  4G 6G 9G11G13
  28596164.474 9 -39777207.008 9  19083159.925    19083162.232       -1440.647
     -1103.326
  18521399.762 8 -59704848.271 8  18776578.291    18776579.182        1471.325
      1149.892
  22822090.961 9 -44285909.043 8  19048488.529    19048491.302        -622.438
      -489.398
   1919854.643 9 -24923448.552 8  20148917.897    20148919.717        2439.443
      1900.660
 88  3 27  5  1 41.0800000  0  4G 6G 9G11G13
  28639279.619 8 -39743610.820 9  19091363.693    19091367.374       -1440.177
     -1127.137
  18477544.804 8 -59739020.969 9  18768232.305    18768233.259        1442.944
      1128.927
  22841303.503 8 -44270938.209 8  19052144.646    19052148.091        -642.980
      -505.348
   1847223.591 9 -24980044.140 8  20135095.372    20135098.945        2418.933
      1879.564
 88  3 27  5  2 11.0800000  0  4G 6G 9G11G13
  28682944.997 9 -39709585.860 9  19099673.195    19099676.160       -1461.269
     -1153.527
  18434183.481 8 -59772809.010 8  18759980.911    18759983.026        1449.299
      1129.604
  22860969.949 8 -44255613.708 8  19055886.845    19055890.061        -670.045
      -522.927
   1775024.912 5 -25036302.817 9  20121355.854    20121358.691        2406.852
      1863.688
 88  3 27  5  2 41.0800000  0  4G 6G 9G11G13
  28727160.677 8 -39675132.091 9  19108087.794    19108090.760       -1489.849
     -1151.855
  18391318.739 9 -59806210.096 8  18751824.468    18751826.432        1419.994
      1103.779
  22881088.604 9 -44239936.826 8  19059715.527    19059719.415        -687.142
      -524.425
   1703259.610 7 -25092223.799 8  20107699.604    20107703.095        2369.221
      1857.331
 88  3 27  5  3 11.0800000  0  4G 6G 9G11G13
  28771926.036 9 -39640250.021 9  19116606.492    19116608.362       -1500.463
     -1167.092
  18348952.245 9 -59839222.937 8  18743762.161    18743763.238        1414.196
      1107.414
  22901657.072 9 -44223909.439 9  19063629.805    19063632.520        -690.515
      -543.402
   1631928.929 9 -25147806.114 7  20094125.486    20094130.079        2364.883
      1860.593
 88  3 27  5  3 41.0800000  0  4G 6G 9G11G13
  28817240.915 8 -39604939.732 8  19125229.860    19125232.188       -1533.836
     -1191.332
  18307086.943 8 -59871845.255 8  18735795.087    18735796.652        1366.342
      1096.174
  22922673.681 9 -44207532.860 9  19067627.678    19067632.110        -719.096
      -566.405
   1561034.266 8 -25203048.696 8  20080635.453    20080639.110        2342.802
      1840.336
 88  3 27  5  4 11.0800000  0  4G 6G 9G11G13
  28863105.209 8 -39569201.338 8  19133956.641    19133959.510       -1548.947
     -1187.864
  18265725.399 9 -59904075.023 8  18727925.080    18727927.179        1358.304
      1053.000
  22944136.929 9 -44190808.239 9  19071712.120    19071716.938        -717.995
      -569.481
   1490576.171 8 -25257951.063 8  20067226.371    20067231.773        2340.075
      1827.437
 88  3 27  5  4 41.0800000  0  4G 6G 9G11G13
  28909519.388 9 -39533034.467 9  19142788.959    19142791.685       -1549.936
     -1201.883
  18224871.049 9 -59935909.576 8  18720149.682    18720152.255        1348.512
      1057.375
  22966045.662 8 -44173736.496 8  19075881.986    19075885.474        -753.505
      -567.716
   1420556.288 5 -25312511.973 8  20053901.782    20053906.366        2369.452
      1812.517
 88  3 27  5  5 11.0800000  0  4G 6G 9G11G13
  28956482.564 8 -39496439.801 8  19151726.664    19151728.352       -1570.510
     -1224.538
  18184525.501 9 -59967347.658 8  18712473.231    18712474.321        1352.738
      1044.003
  22988397.169 8 -44156319.738 8  19080136.450    19080139.121        -752.851
      -591.950
   1350975.325 8 -25366730.866 9  20040662.754    20040665.962        2299.214
      1790.937
 88  3 27  5  5 41.0800000  0  4G 6G 9G11G13
  29003995.087 8 -39459417.074 8  19160767.891    19160770.111       -1595.326
     -1257.974
  18144691.889 9 -59998386.829 7  18704892.336    18704894.657        1322.587
      1032.246
  23011190.511 9 -44138558.688 7  19084472.325    19084476.873        -766.583
      -602.594
   1281834.749 9 -25420606.599 8  20027505.492    20027509.001        2301.718
      1794.709
 88  3 27  5  6 11.0800000  0  4G 6G 9G11G13
  29052056.806 9 -39421966.413 8  19169913.351    19169915.319       -1611.482
     -1261.348
  18105372.943 8 -60029024.968 9  18697409.392    18697412.378        1300.785
      1018.091
  23034424.027 9 -44120454.651 8  19088894.147    19088896.348        -766.399
      -602.768
   1213135.292 9 -25474138.616 8  20014431.585    20014436.894        2279.964
      1773.638
 88  3 27  5  6 41.0800000  0  4G 6G 9G11G13
  29100667.371 9 -39384088.056 9  19179164.025    19179165.323       -1626.737
     -1276.622
  18066571.206 9 -60059260.077 8  18690025.916    18690029.533        1281.997
       997.418
  23058096.014 9 -44102008.941 9  19093399.588    19093402.275        -798.767
      -619.732
   1144878.154 8 -25527325.955 9  20001443.625    20001447.527        2274.853
      1756.898
 88  3 27  5  7 11.0800000  0  4G 6G 9G11G13
  29149826.263 9 -39345782.464 8  19188518.749    19188520.737       -1638.611
     -1264.170
  18028288.995 9 -60089090.366 8  18682741.716    18682743.343        1265.443
       990.788
  23082204.237 9 -44083223.312 9  19097986.535    19097989.723        -810.179
      -629.624
   1077064.014 9 -25580168.094 8  19988538.129    19988541.691        2259.438
      1755.624
 88  3 27  5  7 41.0800000  0  4G 6G 9G11G13
  29199533.161 9 -39307049.828 8  19197977.322    19197979.994       -1675.149
     -1301.005
  17990528.698 8 -60118513.960 8  18675554.666    18675558.347        1237.676
       972.992
  23106746.914 9 -44064099.138 8  19102656.277    19102659.536        -829.261
      -643.462
   1009693.914 8 -25632664.256 9  19975718.281    19975721.433        2240.770
      1745.694
 88  3 27  5  8 11.0800000  0  4G 6G 9G11G13
  29249787.652 8 -39267890.524 8  19207539.722    19207542.738       -1680.851
     -1306.908
  17953292.590 9 -60147529.108 8  18668470.844    18668472.521        1241.448
       971.948
  23131721.960 9 -44044638.064 8  19107409.238    19107411.981        -844.596
      -649.297
    942768.457 9 -25684813.917 9  19962981.810    19962986.503        2220.810
      1737.940
 88  3 27  5  8 41.0800000  0  4G 6G 9G11G13
  29300588.651 9 -39228305.352 8  19217207.642    19217209.422       -1697.525
     -1336.367
  17916582.728 9 -60176134.206 8  18661485.024    18661486.295        1224.383
       958.607
  23157127.224 9 -44024841.751 8  19112244.015    19112247.116        -867.124
      -670.094
    876287.997 9 -25736616.838 9  19950332.652    19950335.503        2219.774
      1728.588
 88  3 27  5  9 11.0800000  0  4G 6G 9G11G13
  29351936.505 8 -39188294.059 8  19226980.044    19226982.041       -1725.778
     -1340.344
  17880402.159 9 -60204326.836 8  18654599.566    18654600.764        1211.568
       949.951
  23182961.283 9 -44004711.311 9  19117159.586    19117162.701        -861.884
      -672.126
    810253.681 8 -25788072.109 8  19937766.461    19937769.456        2209.391
      1710.332
 88  3 27  5  9 41.0800000  0  4G 6G 9G11G13
  29403830.791 9 -39147856.968 9  19236853.902    19236855.565       -1731.608
     -1352.523
  17844753.333 9 -60232105.130 8  18647816.577    18647817.875        1188.410
       915.092
  23209222.486 8 -43984248.041 8  19122157.255    19122159.612        -889.516
      -686.623
    744666.845 8 -25839178.702 9  19925286.121    19925288.607        2173.060
      1709.990
 88  3 27  5 10 11.0800000  0  4G 6G 9G11G13
  29456271.428 8 -39106994.174 8  19246832.334    19246836.480       -1748.051
     -1358.774
  17809639.201 9 -60259466.796 8  18641134.526    18641136.511        1167.007
       909.978
  23235909.075 8 -43963453.294 8  19127235.427    19127238.701        -879.540
      -709.154
    679529.377 8 -25889935.151 8  19912888.601    19912893.938        2165.141
      1695.829
 88  3 27  5 10 41.0800000  0  4G 6G 9G11G13
  29509256.355 9 -39065707.256 8  19256916.209    19256918.224       -1775.913
     -1394.497
  17775061.419 8 -60286410.538 8  18634553.850    18634556.837        1154.456
       907.206
  23263018.840 9 -43942328.801 9  19132394.201    19132397.029        -897.027
      -713.703
    614840.737 9 -25940341.842 8  19900578.922    19900583.974        2173.140
      1678.275
 88  3 27  5 11 11.0800000  0  4G 6G 9G11G13
  29562787.437 8 -39023994.738 8  19267102.071    19267104.082       -1796.957
     -1381.449
  17741022.423 9 -60312934.428 8  18628075.311    18628079.092        1120.086
       885.520
  23290549.703 8 -43920876.179 6  19137633.292    19137636.293        -927.968
      -707.110
    550601.512 6 -25990398.349 8  19888355.996    19888360.260        2125.206
      1653.507
 88  3 27  5 11 41.0800000  0  4G 6G 9G11G13
  29616861.949 8 -38981858.783 8  19277391.492    19277392.680       -1798.648
     -1400.612
  17707524.073 8 -60339037.040 7  18621701.474    18621704.159        1119.408
       860.050
  23318499.149 9 -43899097.396 9  19142951.798    19142954.342        -933.813
      -718.463
    486812.365 6 -26040104.147 9  19876218.756    19876219.571        2131.003
      1655.719
 88  3 27  5 12 11.0800000  0  4G 6G 9G11G13
  29671479.614 9 -38939299.594 8  19287785.369    19287788.471       -1834.062
     -1426.486
  17674568.875 8 -60364716.415 8  18615430.962    18615433.185        1103.021
       856.458
  23346865.870 9 -43876993.455 9  19148350.012    19148352.698        -958.342
      -748.227
    423474.168 8 -26089458.569 8  19864164.080    19864167.003        2102.894
      1639.861
 88  3 27  5 12 41.0800000  0  4G 6G 9G11G13
  29726640.624 9 -38896317.017 8  19298283.746    19298284.353       -1848.472
     -1445.165
  17642159.088 9 -60389970.783 8  18609263.145    18609265.833        1076.546
       845.137
  23375647.665 9 -43854566.072 8  19153826.036    19153830.024        -968.374
      -745.878
    360587.795 8 -26138460.918 8  19852196.791    19852201.195        2092.001
      1637.351
 88  3 27  5 13 11.0800000  0  4G 6G 9G11G13
  29782344.931 9 -38852911.088 7  19308882.454    19308885.463       -1865.633
     -1458.785
  17610298.393 7 -60414797.299 9  18603199.713    18603203.116        1058.907
       825.004
  23404843.878 9 -43831815.774 9  19159383.021    19159386.236        -972.736
      -763.034
    298154.915 8 -26187109.866 8  19840316.774    19840320.562        2077.599
      1613.359
 88  3 27  5 13 41.0800000  0  4G 6G 9G11G13
  29838590.637 8 -38809083.287 8  19319586.117    19319588.313       -1894.125
     -1468.081
  17578987.311 9 -60439195.548 8  18597241.809    18597244.389        1030.263
       802.454
  23434450.914 8 -43808745.364 9  19165017.296    19165019.825        -991.388
      -780.464
    236174.795 8 -26235406.045 8  19828521.856    19828526.564        2054.266
      1598.558
 88  3 27  5 14 11.0800000  0  4G 6G 9G11G13
  29895376.050 9 -38764834.944 7  19330391.325    19330393.610       -1901.892
     -1465.067
  17548227.492 9 -60463164.245 8  18591388.649    18591390.706        1006.842
       784.987
  23464466.064 9 -43785356.930 8  19170728.359    19170731.447        -994.163
      -790.101
    174647.296 9 -26283349.539 8  19816813.654    19816816.859        2033.557
      1593.133
 88  3 27  5 14 41.0800000  0  4G 6G 9G11G13
  29952700.570 9 -38720166.523 7  19341300.304    19341302.394       -1913.232
     -1500.213
  17518021.220 9 -60486701.588 7  18585641.348    18585642.689         996.842
       777.114
  23494887.383 9 -43761652.015 9  19176517.206    19176520.050       -1005.096
      -808.668
    113572.877 8 -26330939.956 8  19805192.716    19805195.482        2017.512
      1571.137
 88  3 27  5 15 11.0800000  0  4G 6G 9G11G13
  30010564.145 9 -38675078.053 7  19352311.843    19352313.328       -1939.060
     -1520.233
  17488371.382 8 -60509805.358 8  18579999.482    18580000.401         985.622
       778.482
  23525713.249 9 -43737631.862 9  19182383.150    19182386.380       -1036.499
      -801.901
     52953.073 9 -26378176.131 7  19793657.036    19793660.001        2002.815
      1558.697
 88  3 27  5 15 41.0800000  0  4G 6G 9G11G13
  30068966.072 8 -38629570.080 8  19363425.520    19363426.923       -1969.794
     -1511.578
  17459280.029 9 -60532473.942 9  18574463.165    18574464.692         970.910
       756.696
  23556941.859 8 -43713297.887 8  19188326.560    19188328.531       -1046.236
      -812.135
     -7211.544 9 -26425057.628 8  19782206.943    19782210.878        2010.822
      1540.329
 88  3 27  5 16 11.0800000  0  4G 6G 9G11G13
  30127905.294 8 -38583643.442 8  19374641.044    19374643.202       -1964.220
     -1540.217
  17430749.079 8 -60554705.862 8  18569033.382    18569036.691         950.057
       720.687
  23588570.936 8 -43688651.849 9  19194344.580    19194346.923       -1049.816
      -814.006
    -66921.159 8 -26471584.576 8  19770844.718    19770847.562        1985.112
      1551.526
 88  3 27  5 16 41.0800000  0  4G 6G 9G11G13
  30187380.953 7 -38537298.789 8  19385958.106    19385961.670       -1988.055
     -1548.599
  17402780.647 8 -60576499.456 8  18563711.099    18563713.113         921.644
       737.756
  23620598.391 8 -43663695.396 8  19200439.009    19200441.925       -1076.068
      -842.651
   -126174.803 8 -26517756.217 8  19759569.758    19759572.695        1974.610
      1526.994
 88  3 27  5 17 11.0800000  0  4G 6G 9G11G13
  30247392.003 8 -38490536.958 7  19397378.591    19397380.809       -2002.752
     -1561.176
  17375376.585 8 -60597853.289 8  18558497.091    18558498.991         918.925
       705.159
  23653022.178 9 -43638430.104 8  19206610.621    19206613.251       -1091.530
      -848.269
   -184972.155 5 -26563572.310 8  19748378.783    19748383.559        1960.878
      1520.929
 88  3 27  5 17 41.0800000  0  4G 6G 9G11G13
  30307937.326 8 -38443358.819 7  19408899.495    19408901.836       -2025.223
     -1584.875
  17348538.898 8 -60618765.752 8  18553389.193    18553391.157         891.964
       694.322
  23685840.059 9 -43612857.737 9  19212855.037    19212857.781       -1096.450
      -853.855
   -243312.796 9 -26609032.512 8  19737278.551    19737283.612        1932.163
      1497.112
 88  3 27  5 18 11.0800000  0  4G 6G 9G11G13
  30369015.748 9 -38395765.266 8  19420522.831    19420524.180       -2047.304
     -1598.732
  17322269.145 8 -60639235.697 8  18548390.694    18548392.078         871.860
       671.549
  23719048.876 9 -43586980.740 9  19219174.287    19219177.204       -1117.797
      -861.069
   -301196.959 9 -26654137.019 8  19726263.254    19726268.166        1936.740
      1497.541
 88  3 27  5 18 41.0800000  0  4G 6G 9G11G13
  30430626.713 9 -38347756.737 8  19432246.667    19432248.319       -2059.609
     -1598.129
  17296570.075 8 -60659260.952 7  18543500.961    18543502.594         842.897
       654.951
  23752647.370 9 -43560800.098 9  19225567.978    19225570.521       -1102.439
      -876.622
   -358623.620 9 -26698885.042 8  19715336.085    19715339.118        1905.935
      1491.482
 88  3 27  5 19 11.0800000  0  4G 6G 9G11G13
  30492769.182 8 -38299334.017 9  19444071.438    19444073.936       -2078.532
     -1612.527
  17271443.178 8 -60678840.355 8  18538719.428    18538720.977         842.212
       654.976
  23786633.758 8 -43534317.214 9  19232034.015    19232037.116       -1123.587
      -881.543
   -415592.606 9 -26743276.432 9  19704495.533    19704498.488        1892.044
      1477.520
 88  3 27  5 19 41.0800000  0  4G 6G 9G11G13
  30555442.157 8 -38250497.965 7  19455997.231    19456000.854       -2117.550
     -1631.510
  17246890.780 8 -60697972.101 8  18534046.878    18534049.278         817.045
       637.864
  23821005.772 9 -43507533.829 9  19238575.623    19238579.427       -1146.178
      -899.570
   -472103.360 9 -26787310.759 8  19693741.750    19693745.853        1882.020
      1460.867
 88  3 27  5 20 11.0800000  0  4G 6G 9G11G13
  30618644.294 9 -38201249.568 8  19468023.678    19468028.819       -2111.155
     -1646.653
  17222914.456 8 -60716654.949 7  18529484.521    18529486.012         798.201
       618.197
  23855760.442 9 -43480452.267 9  19245189.239    19245192.785       -1168.674
      -900.396
   -528155.722 8 -26830987.892 8  19683074.343    19683079.891        1869.947
      1451.310
 88  3 27  5 20 41.0800000  0  4G 6G 9G11G13
  30682374.417 8 -38151589.767 9  19480152.990    19480154.560       -2141.274
     -1653.656
  17199515.989 9 -60734887.535 8  18525031.996    18525033.302         780.817
       605.881
  23890895.808 9 -43453074.066 9  19251875.405    19251878.377       -1180.556
      -901.253
   -583749.370 9 -26874307.589 8  19672495.715    19672499.892        1849.628
      1436.217
 88  3 27  5 21 11.0800000  0  4G 6G 9G11G13
  30746631.443 9 -38101519.359 8  19492380.752    19492382.945       -2143.491
     -1662.020
  17176697.386 8 -60752668.241 8  18520688.930    18520691.602         768.226
       598.779
  23926409.729 9 -43425400.891 9  19258633.658    19258636.501       -1186.784
      -928.072
   -638884.839 5 -26917270.275 8  19662002.506    19662005.875        1823.839
      1436.677
 88  3 27  5 21 41.0800000  0  4G 6G 9G11G13
  30811413.972 8 -38051039.509 8  19504707.790    19504710.662       -2173.467
     -1681.506
  17154459.890 9 -60769996.174 8  18516457.140    18516460.277         738.098
       567.542
  23962299.677 9 -43397434.691 9  19265462.105    19265466.380       -1189.910
      -927.327
   -693561.650 9 -26959875.544 8  19651598.640    19651602.549        1824.939
      1411.840
 88  3 27  5 22 11.0800000  0  4G 6G 9G11G13
  30876721.212 9 -38000150.787 9  19517136.161    19517138.415       -2183.132
     -1706.697
  17132806.099 8 -60786869.276 7  18512336.287    18512338.931         730.738
       558.035
  23998563.611 9 -43369177.095 9  19272363.336    19272367.109       -1212.884
      -941.985
   -747779.140 9 -27002122.915 8  19641281.494    19641284.882        1803.114
      1387.898
 88  3 27  5 22 41.0800000  0  4G 6G 9G11G13
  30942552.354 8 -37948853.811 8  19529662.417    19529666.250       -2199.447
     -1708.113
  17111737.782 8 -60803286.146 8  18508327.665    18508329.471         703.035
       544.849
  24035199.479 9 -43340629.664 9  19279335.587    19279338.489       -1224.494
      -943.743
   -801537.106 9 -27044012.203 8  19631052.406    19631055.326        1781.942
      1385.096
 88  3 27  5 23 11.0800000  0  4G 6G 9G11G13
  31008906.069 8 -37897149.648 8  19542288.647    19542291.755       -2207.964
     -1724.990
  17091256.999 9 -60819245.203 8  18504429.869    18504431.940         679.918
       529.967
  24072205.713 9 -43311793.643 8  19286378.020    19286381.464       -1221.998
      -955.984
   -854834.861 9 -27085542.916 8  19620909.469    19620913.394        1767.046
      1375.912
 88  3 27  5 23 41.0800000  0  4G 6G 9G11G13
  31075781.979 8 -37845038.583 8  19555016.391    19555018.775       -2241.281
     -1740.829
  17071366.025 9 -60834744.658 8  18500646.322    18500647.698         655.460
       508.735
  24109580.373 9 -43282670.533 9  19293489.758    19293492.416       -1261.559
      -981.604
   -907671.880 9 -27126714.585 7  19610854.732    19610858.527        1762.803
      1372.414
 88  3 27  5 24 11.0800000  0  4G 6G 9G11G13
  31143177.988 8 -37792522.250 8  19567840.367    19567843.778       -2247.931
     -1756.003
  17052065.866 8 -60849783.764 7  18496972.867    18496974.760         644.049
       493.169
  24147320.357 9 -43253262.759 8  19300670.553    19300674.570       -1252.157
      -974.613
   -960048.260 9 -27167527.316 8  19600888.005    19600891.186        1742.166
      1359.272
 88  3 27  5 24 41.0800000  0  4G 6G 9G11G13
  31211093.157 9 -37739601.368 8  19580764.589    19580767.529       -2261.615
     -1779.827
  17033358.512 9 -60864360.926 8  18493412.966    18493414.573         592.630
       476.044
  24185423.980 8 -43223571.632 9  19307921.318    19307925.422       -1290.219
     -1003.178
  -1011963.617 9 -27207980.820 7  19591009.374    19591012.339        1724.415
      1344.464
 88  3 27  5 25 11.0800000  0  4G 6G 9G11G13
  31279525.776 9 -37686277.284 8  19593787.208    19593789.909       -2284.821
     -1776.384
  17015245.475 8 -60878474.962 9  18489966.005    18489968.190         600.054
       462.622
  24223888.452 9 -43193599.311 8  19315242.087    19315244.529       -1293.249
     -1003.700
  -1063418.223 4 -27248075.312 8  19581217.884    19581220.381        1713.530
      1338.791
 88  3 27  5 25 41.0800000  0  4G 6G 9G11G13
  31348474.990 9 -37632550.637 8  19606907.025    19606910.438       -2314.884
     -1810.293
  16997728.650 8 -60892124.446 8  18486633.256    18486634.083         571.626
       452.798
  24262711.755 8 -43163347.383 6  19322629.470    19322632.529       -1304.924
     -1013.176
  -1114412.222 6 -27287810.855 8  19571514.413    19571517.675        1697.469
      1320.634
 88  3 27  5 26 11.0800000  0  4G 6G 9G11G13
  31417939.492 8 -37578422.482 8  19620126.990    19620129.996       -2304.246
     -1807.012
  16980809.722 9 -60905308.036 8  18483412.787    18483414.786         562.025
       414.130
  24301892.042 9 -43132817.300 9  19330085.085    19330088.215       -1304.342
     -1020.247
  -1164945.182 6 -27327187.154 7  19561897.913    19561900.517        1682.956
      1283.594
 88  3 27  5 26 41.0800000  0  4G 6G 9G11G13
  31487917.291 9 -37523894.354 8  19633443.557    19633445.979       -2327.747
     -1817.892
  16964489.762 8 -60918024.897 8  18480307.776    18480309.963         539.593
       415.000
  24341426.354 9 -43102011.340 9  19337607.633    19337610.849       -1321.486
     -1032.793
  -1215017.359 9 -27366204.410 8  19552369.361    19552373.071        1673.156
      1293.542
 88  3 27  5 27 11.0800000  0  4G 6G 9G11G13
  31558408.405 9 -37468966.247 8  19646857.765    19646859.744       -2357.451
     -1830.481
  16948771.882 9 -60930272.599 8  18477316.455    18477318.906         512.863
       403.703
  24381313.930 9 -43070930.112 9  19345199.211    19345202.313       -1329.772
     -1034.092
  -1264627.538 8 -27404861.665 8  19542927.913    19542930.489        1671.401
      1288.552
 88  3 27  5 27 41.0800000  0  4G 6G 9G11G13
  31629410.696 9 -37413639.804 7  19660368.072    19660370.504       -2377.794
     -1865.776
  16933656.533 8 -60942050.777 7  18474440.878    18474441.445         483.605
       383.055
  24421551.187 9 -43039576.405 9  19352856.380    19352858.452       -1350.433
     -1043.151
  -1313776.538 9 -27443159.567 9  19533575.016    19533579.292        1643.084
      1264.729
 88  3 27  5 28 11.0800000  0  4G 6G 9G11G13
  31700923.623 9 -37357915.466 8  19673977.109    19673977.964       -2398.886
     -1868.075
  16919146.640 9 -60953357.224 8  18471679.217    18471681.188         468.637
       371.230
  24462137.558 9 -43007950.670 8  19360578.115    19360581.660       -1371.031
     -1064.912
  -1362463.354 9 -27481097.321 8  19524309.827    19524313.565        1604.712
      1248.113
 88  3 27  5 28 41.0800000  0  4G 6G 9G11G13
  31772945.589 9 -37301794.497 8  19687681.351    19687684.296       -2420.129
     -1870.063
  16905243.191 9 -60964191.074 8  18469033.848    18469034.725         450.017
       358.834
  24503069.927 9 -42976055.324 8  19368367.126    19368370.914       -1388.176
     -1055.871
  -1410687.831 9 -27518674.822 9  19515134.465    19515136.991        1592.351
      1244.093
 88  3 27  5 29 11.0800000  0  4G 6G 9G11G13
  31845474.073 9 -37245278.814 8  19701483.650    19701486.391       -2413.886
     -1888.835
  16891946.565 9 -60974552.085 8  18466502.315    18466504.373         435.862
       339.391
  24544345.345 8 -42943892.667 9  19376222.244    19376226.261       -1374.763
     -1080.459
  -1458451.626 8 -27555893.320 7  19506044.971    19506048.394        1589.824
      1238.302
 88  3 27  5 29 41.0800000  0  4G 6G 9G11G13
  31918507.427 9 -37188369.730 8  19715381.572    19715384.342       -2453.957
     -1893.421
  16879258.564 9 -60984438.836 8  18464088.134    18464090.657         412.282
       322.663
  24585960.938 8 -42911464.932 8  19384142.353    19384145.097       -1396.110
     -1088.792
  -1505754.793 8 -27592752.914 7  19497043.018    19497046.703        1573.508
      1228.384
 88  3 27  5 30 11.0800000  0  4G 6G 9G11G13
  31992044.414 9 -37131068.219 8  19729375.162    19729378.471       -2456.915
     -1916.723
  16867180.589 8 -60993850.256 7  18461789.976    18461792.569         402.458
       311.062
  24627915.113 9 -42878773.376 8  19392125.133    19392129.008       -1398.878
     -1084.647
  -1552596.785 7 -27629253.137 8  19488129.370    19488133.376        1555.055
      1207.208
 88  3 27  5 30 41.0800000  0  4G 6G 9G11G13
  32066082.970 9 -37073375.870 8  19743463.411    19743467.303       -2480.798
     -1931.847
  16855713.633 8 -61002785.550 8  18459608.928    18459609.597         379.579
       294.589
  24670204.723 9 -42845820.438 9  19400172.707    19400175.995       -1417.059
     -1098.989
  -1598978.223 6 -27665394.495 7  19479303.716    19479305.937        1565.773
      1197.378
 88  3 27  5 31 11.0800000  0  4G 6G 9G11G13
  32140623.497 9 -37015292.362 8  19757649.617    19757652.114       -2493.103
     -1937.327
  16844860.871 8 -61011242.264 7  18457542.716    18457545.352         345.306
       271.095
  24712829.631 8 -42812606.231 8  19408283.156    19408286.858       -1424.316
     -1108.806
  -1644898.002 9 -27701176.133 8  19470564.978    19470568.151        1508.110
      1200.000
 88  3 27  5 31 41.0800000  0  4G 6G 9G11G13
  32215664.257 9 -36956819.072 8  19771928.659    19771931.273       -2506.556
     -1967.980
  16834623.769 8 -61019219.242 8  18455594.314    18455596.807         330.409
       271.853
  24755787.227 9 -42779132.785 9  19416457.737    19416460.538       -1429.898
     -1118.910
  -1690356.505 9 -27736598.324 8  19461914.332    19461917.778        1519.514
      1184.994
 88  3 27  5 32 11.0800000  0  4G 6G 9G11G13
  32291202.458 8 -36897958.153 7  19786303.193    19786305.500       -2523.342
     -1964.376
  16825002.430 8 -61026716.376 8  18453763.368    18453765.874         316.805
       239.877
  24799074.137 9 -42745402.719 9  19424696.429    19424699.229       -1435.966
     -1124.229
  -1735353.645 8 -27771661.001 7  19453351.417    19453355.828        1495.128
      1159.871
 88  3 27  5 32 41.0800000  0  4G 6G 9G11G13
  32367236.808 9 -36838710.668 7  19800772.274    19800773.949       -2542.943
     -1980.830
  16815998.431 9 -61033732.491 7  18452050.778    18452052.921         287.444
       217.277
  24842688.333 9 -42711417.630 8  19432995.860    19432998.761       -1471.372
     -1148.755
  -1779890.189 9 -27806364.787 7  19444876.748    19444880.503        1465.368
      1156.460
 88  3 27  5 33 11.0800000  0  4G 6G 9G11G13
  32443764.978 9 -36779078.355 8  19815334.982    19815337.218       -2554.051
     -1998.813
  16807612.245 9 -61040267.185 7  18450454.547    18450456.897         266.902
       226.660
  24886626.767 9 -42677179.898 8  19441357.143    19441359.658       -1473.510
     -1146.008
  -1823966.963 9 -27840710.293 7  19436489.221    19436493.624        1476.412
      1139.509
 88  3 27  5 33 41.0800000  0  4G 6G 9G11G13
  32520786.310 9 -36719061.762 8  19829991.105    19829994.703       -2559.091
     -2010.408
  16799846.494 9 -61046318.433 8  18448976.811    18448978.439         244.693
       181.418
  24930887.855 9 -42642690.733 7  19449779.065    19449781.838       -1487.281
     -1136.706
  -1867583.495 9 -27874697.178 8  19428189.167    19428192.959        1441.389
      1131.953
 88  3 27  5 34 11.0800000  0  4G 6G 9G11G13
  32598299.109 9 -36658662.197 8  19844742.418    19844743.818       -2577.870
     -2024.246
  16792702.222 8 -61051885.404 8  18447618.048    18447619.933         243.999
       170.991
  24975469.859 9 -42607951.515 8  19458262.832    19458265.047       -1493.326
     -1137.570
  -1910739.706 7 -27908325.378 7  19419977.170    19419980.923        1409.834
      1127.671
 88  3 27  5 34 41.0800000  0  4G 6G 9G11G13
  32676299.582 8 -36597882.635 9  19859585.591    19859587.408       -2611.291
     -2034.853
  16786178.709 8 -61056968.657 7  18446375.818    18446377.252         208.976
       166.219
  25020368.394 9 -42572965.656 9  19466807.357    19466810.272       -1501.436
     -1163.699
  -1953438.139 9 -27941596.857 7  19411852.133    19411855.181        1419.954
      1091.973
 88  3 27  5 35 11.0800000  0  4G 6G 9G11G13
  32754788.384 9 -36536722.574 8  19874521.537    19874523.480       -2616.107
     -2050.785
  16780278.926 8 -61061565.885 7  18445252.818    18445254.847         185.404
       156.799
  25065583.030 9 -42537733.478 8  19475411.491    19475413.262       -1500.439
     -1180.855
  -1995676.489 9 -27974509.839 8  19403813.363    19403817.820        1392.729
      1099.653
 88  3 27  5 35 41.0800000  0  4G 6G 9G11G13
  32833763.395 9 -36475183.643 7  19889549.533    19889551.790       -2640.102
     -2060.224
  16775004.150 9 -61065676.107 6  18444248.959    18444251.853         163.299
       119.988
  25111111.029 9 -42502257.120 8  19484074.974    19484077.390       -1516.188
     -1189.498
  -2037455.556 9 -28007064.916 8  19395863.540    19395867.116        1388.471
      1078.334
 88  3 27  5 36 11.0800000  0  4G 6G 9G11G13
  32913222.733 9 -36413267.301 8  19904670.440    19904672.937       -2645.915
     -2079.256
  16770355.446 9 -61069298.482 6  18443364.370    18443367.013         164.567
        86.981
  25156950.147 9 -42466538.328 8  19492797.131    19492800.576       -1527.632
     -1185.584
  -2078775.759 9 -28039262.457 7  19388002.093    19388004.217        1383.790
      1057.872
 88  3 27  5 36 41.0800000  0  4G 6G 9G11G13
  32993164.797 9 -36350974.813 7  19919882.161    19919885.106       -2667.422
     -2069.333
  16766333.893 8 -61072432.157 7  18442599.854    18442602.398         123.323
        88.155
  25203098.093 9 -42430578.880 8  19501579.581    19501581.538       -1540.087
     -1208.009
  -2119637.020 8 -28071102.378 7  19380225.929    19380229.968        1362.849
      1043.369
 88  3 27  5 37 11.0800000  0  4G 6G 9G11G13
  33073587.344 9 -36288307.915 9  19935186.767    19935188.345       -2673.690
     -2092.423
  16762940.443 8 -61075076.410 7  18441953.370    18441956.250         105.692
        85.023
  25249552.408 9 -42394380.729 8  19510419.125    19510421.955       -1555.653
     -1198.602
  -2160040.256 9 -28102585.387 8  19372537.876    19372538.974        1330.761
      1047.743
 88  3 27  5 37 41.0800000  0  4G 6G 9G11G13
  33154489.096 8 -36225267.630 8  19950581.721    19950584.523       -2707.119
     -2112.904
  16760176.605 9 -61077230.059 6  18441427.477    18441429.112          80.980
        65.537
  25296311.125 9 -42357945.369 8  19519316.735    19519320.309       -1562.025
     -1205.766
  -2199985.429 9 -28133711.476 8  19364935.684    19364938.506        1304.995
      1025.026
 88  3 27  5 38 11.0800000  0  4G 6G 9G11G13
  33235868.006 9 -36161855.526 8  19966067.558    19966069.314       -2727.326
     -2104.416
  16758042.982 8 -61078892.626 7  18441022.561    18441024.174          64.050
        44.018
  25343371.674 8 -42321274.817 8  19528272.069    19528275.270       -1565.566
     -1223.028
  -2239473.043 9 -28164481.023 7  19357421.205    19357424.496        1303.775
      1023.342
 88  3 27  5 38 41.0800000  0  4G 6G 9G11G13
  33317723.191 9 -36098072.308 9  19981645.329    19981646.452       -2729.758
     -2133.068
  16756541.591 9 -61080062.553 7  18440736.043    18440739.188          33.795
        31.895
  25390732.700 9 -42284370.117 8  19537284.208    19537287.237       -1569.513
     -1223.531
  -2278502.169 9 -28194893.300 8  19349994.771    19349997.243        1285.394
      1012.449
 88  3 27  5 39 11.0800000  0  4G 6G 9G11G13
  33400051.800 9 -36033920.201 7  19997310.019    19997313.990       -2750.132
     -2148.236
  16755672.803 8 -61080739.536 7  18440570.534    18440573.348          27.926
        16.423
  25438391.183 9 -42247233.646 8  19546354.009    19546357.111       -1595.804
     -1236.748
  -2317074.194 9 -28224949.385 8  19342654.170    19342657.332        1287.468
       978.174
 88  3 27  5 39 41.0800000  0  4G 6G 9G11G13
  33482853.080 9 -35969399.764 8  20013067.299    20013069.474       -2764.366
     -2155.363
  16755438.395 8 -61080922.195 7  18440526.358    18440528.716          -5.622
       -17.237
  25486345.499 9 -42209866.644 8  19555479.675    19555482.533       -1595.118
     -1246.883
  -2355188.727 9 -28254648.994 7  19335400.505    19335404.307        1269.159
       988.483
 88  3 27  5 40 11.0800000  0  4G 6G 9G11G13
  33566124.692 9 -35904512.819 9  20028913.812    20028916.349       -2774.271
     -2180.305
  16755838.776 9 -61080610.209 7  18440602.192    18440603.125         -11.706
       -17.616
  25534592.918 9 -42172271.249 8  19564660.890    19564663.690       -1618.762
     -1252.985
  -2392846.845 8 -28283992.972 7  19328234.211    19328238.787        1242.484
       956.680
 88  3 27  5 40 41.0800000  0  4G 6G 9G11G13
  33649864.420 9 -35839261.121 8  20044847.116    20044851.513       -2795.379
     -2175.092
  16756874.677 8 -61079803.033 7  18440798.786    18440800.764         -48.683
       -32.305
  25583130.752 9 -42134449.561 9  19573897.102    19573900.075       -1611.386
     -1258.117
  -2430048.984 9 -28312981.620 8  19321154.977    19321158.937        1225.228
       963.944
 88  3 27  5 41 11.0800000  0  4G 6G 9G11G13
  33734070.133 9 -35773646.321 9  20060871.884    20060874.807       -2810.123
     -2198.679
  16758546.944 9 -61078499.963 6  18441118.166    18441120.257         -71.123
       -64.300
  25631956.796 9 -42096403.296 9  19583188.751    19583191.910       -1633.491
     -1274.205
  -2466795.795 9 -28341615.454 8  19314161.837    19314166.344        1218.378
       948.112
 88  3 27  5 41 41.0800000  0  4G 6G 9G11G13
  33818739.997 9 -35707669.848 9  20076984.407    20076986.850       -2821.893
     -2213.518
  16760856.443 8 -61076700.371 8  18441557.108    18441559.302         -82.678
       -60.883
  25681068.921 9 -42058134.119 8  19592533.995    19592536.311       -1645.979
     -1282.158
  -2503087.671 9 -28369894.829 8  19307256.523    19307260.449        1197.980
       938.163
 88  3 27  5 42 11.0800000  0  4G 6G 9G11G13
  33903874.271 9 -35641331.475 5  20093184.826    20093187.026       -2845.051
     -2220.173
  16763804.216 8 -61074403.399 7  18442118.439    18442119.594         -91.881
       -90.324
  25730465.110 9 -42019643.589 8  19601933.163    19601937.481       -1648.610
     -1282.047
  -2538924.846 9 -28397819.880 7  19300437.306    19300438.976        1194.559
       919.342
 88  3 27  5 42 41.0800000  0  4G 6G 9G11G13
  33989467.232 8 -35574635.707 8  20109471.434    20109474.589       -2852.690
     -2229.077
  16767391.429 9 -61071608.167 8  18442800.353    18442801.487        -133.682
      -102.043
  25780142.914 9 -41980933.611 8  19611387.075    19611390.391       -1659.328
     -1288.279
  -2574307.466 8 -28425390.708 8  19293703.460    19293707.076        1175.173
       892.747
 88  3 27  5 43 11.0800000  0  4G 6G 9G11G13
  34075519.435 9 -35507582.081 8  20125848.209    20125850.381       -2864.349
     -2245.264
  16771618.833 8 -61068314.094 7  18443605.785    18443607.733        -151.943
      -116.055
  25830100.490 9 -41942005.646 8  19620893.984    19620896.685       -1671.736
     -1297.575
  -2609235.988 9 -28452607.718 7  19287056.674    19287061.786        1155.612
       907.567
 88  3 27  5 43 41.0800000  0  4G 6G 9G11G13
  34162028.412 9 -35440172.508 8  20142310.146    20142312.060       -2883.288
     -2247.656
  16776487.088 8 -61064520.657 7  18444531.725    18444534.568        -161.313
      -154.288
  25880335.339 9 -41902861.604 9  19630453.522    19630456.267       -1677.262
     -1304.876
  -2643711.069 9 -28479471.399 7  19280496.128    19280499.627        1152.326
       900.483
 88  3 27  5 44 11.0800000  0  4G 6G 9G11G13
  34248991.843 8 -35372408.823 8  20158859.132    20158860.652       -2879.149
     -2273.729
  16781996.851 9 -61060227.363 7  18445581.050    18445582.885        -215.714
      -159.961
  25930844.804 9 -41863503.576 8  19640064.232    19640067.906       -1688.036
     -1296.916
  -2677733.937 9 -28505982.709 7  19274021.974    19274025.766        1124.934
       886.688
 88  3 27  5 44 41.0800000  0  4G 6G 9G11G13
  34336407.502 9 -35304292.758 8  20175492.728    20175496.703       -2919.914
     -2278.197
  16788148.604 8 -61055433.791 7  18446750.738    18446753.438        -209.167
      -174.259
  25981626.395 8 -41823933.503 9  19649727.967    19649731.899       -1695.715
     -1313.122
  -2711304.718 8 -28532141.715 8  19267633.978    19267637.329        1114.201
       874.758
 88  3 27  5 45 11.0800000  0  4G 6G 9G11G13
  34424274.242 8 -35235825.189 8  20192213.610    20192216.997       -2930.377
     -2285.181
  16794943.705 8 -61050138.910 7  18448043.501    18448045.565        -240.371
      -177.155
  26032678.321 9 -41784152.789 8  19659443.129    19659446.045       -1700.516
     -1327.295
  -2744423.318 9 -28557948.387 8  19261331.734    19261334.825        1100.557
       865.394
 88  3 27  5 45 41.0800000  0  4G 6G 9G11G13
  34512589.094 9 -35167008.424 8  20209018.933    20209022.511       -2951.301
     -2310.409
  16802382.180 8 -61044342.700 7  18449459.748    18449460.746        -254.924
      -213.934
  26083998.010 9 -41744163.431 8  19669208.773    19669211.016       -1717.605
     -1337.741
  -2777091.094 9 -28583403.776 9  19255115.618    19255118.840        1075.804
       857.925
 88  3 27  5 46 11.0800000  0  4G 6G 9G11G13
  34601350.181 9 -35097843.977 6  20225910.290    20225913.335       -2959.491
     -2309.620
  16810464.551 9 -61038044.766 7  18450998.148    18451000.427        -272.556
      -202.569
  26135583.145 8 -41703967.233 8  19679024.610    19679028.528       -1730.986
     -1341.127
  -2809308.780 8 -28608508.468 8  19248984.209    19248987.751        1078.994
       829.609
 88  3 27  5 46 41.0800000  0  4G 6G 9G11G13
  34690555.280 9 -35028333.544 8  20242885.554    20242887.729       -2975.073
     -2318.189
  16819191.619 9 -61031244.459 6  18452657.528    18452659.263        -296.399
      -234.365
  26187431.404 9 -41663565.998 8  19688890.650    19688894.895       -1726.879
     -1344.334
  -2841077.431 9 -28633263.233 8  19242939.903    19242941.069        1051.188
       821.034
 88  3 27  5 47 11.0800000  0  4G 6G 9G11G13
  34780202.112 9 -34958478.879 8  20259944.955    20259946.929       -2989.921
     -2329.759
  16828563.539 8 -61023941.671 6  18454441.414    18454442.606        -327.515
      -266.279
  26239540.185 9 -41622961.760 9  19698806.420    19698810.294       -1723.561
     -1365.578
  -2872397.492 9 -28657668.435 8  19236979.361    19236981.385        1043.508
       816.696
 88  3 27  5 47 41.0800000  0  4G 6G 9G11G13
  34870289.234 9 -34888281.161 8  20277087.986    20277090.043       -2994.921
     -2335.364
  16838581.595 7 -61016135.397 6  18456347.900    18456350.114        -344.420
      -279.484
  26291908.208 9 -41582155.510 9  19708772.790    19708776.063       -1747.118
     -1366.119
  -2903269.046 8 -28681724.177 8  19231104.935    19231107.929        1011.284
       804.057
 88  3 27  5 48 11.0800000  0  4G 6G 9G11G13
  34960813.376 9 -34817742.884 6  20294314.584    20294317.818       -3028.525
     -2361.288
  16849245.297 8 -61007826.037 7  18458378.313    18458377.693        -363.439
      -277.775
  26344531.784 9 -41541150.135 8  19718786.658    19718790.247       -1761.870
     -1359.557
  -2933693.821 9 -28705431.767 7  19225315.136    19225317.752        1004.091
       794.128
 88  3 27  5 48 41.0800000  0  4G 6G 9G11G13
  35051773.849 9 -34746864.622 3  20311623.632    20311626.224       -3033.956
     -2370.341
  16860556.512 9 -60999012.105 7  18460529.399    18460530.713        -380.520
      -291.389
  26397410.303 9 -41499946.089 9  19728849.644    19728852.073       -1765.124
     -1370.655
  -2963671.176 9 -28728790.724 8  19219610.093    19219612.838         999.960
       777.419
 88  3 27  5 49 11.0800000  0  4G 6G 9G11G13
  35143168.114 8 -34675648.334 9  20329015.088    20329017.081       -3041.539
     -2377.332
  16872515.352 8 -60989693.532 7  18462805.080    18462806.287        -393.295
      -327.659
  26450541.037 9 -41458545.522 8  19738959.559    19738962.318       -1761.663
     -1372.699
  -2993201.778 9 -28751801.567 8  19213991.166    19213994.617         979.817
       756.149
 88  3 27  5 49 41.0800000  0  4G 6G 9G11G13
  35234993.106 9 -34604096.416 8  20346489.722    20346491.639       -3069.657
     -2403.945
  16885121.303 8 -60979870.715 6  18465204.568    18465206.345        -432.242
      -345.132
  26503920.802 9 -41416950.902 9  19749117.153    19749120.641       -1789.908
     -1388.483
  -3022287.779 9 -28774465.958 8  19208456.675    19208459.704         955.097
       757.212
 88  3 27  5 50 11.0800000  0  4G 6G 9G11G13
  35327246.703 9 -34532210.521 7  20364043.561    20364046.778       -3074.784
     -2398.807
  16898374.882 8 -60969543.259 7  18467725.315    18467728.660        -447.066
      -347.593
  26557547.464 9 -41375163.903 9  19759321.879    19759325.424       -1793.345
     -1398.139
  -3050929.604 9 -28796784.243 7  19203005.265    19203007.690         958.526
       736.066
 88  3 27  5 50 41.0800000  0  4G 6G 9G11G13
  35419927.713 8 -34459991.574 9  20381680.062    20381683.683       -3098.085
     -2414.186
  16912277.473 8 -60958710.074 7  18470370.915    18470374.345        -482.281
      -375.288
  26611419.905 9 -41333185.394 8  19769573.844    19769576.875       -1805.857
     -1387.339
  -3079126.852 9 -28818756.098 7  19197640.491    19197642.595         936.197
       717.077
 88  3 27  5 51 11.0800000  0  4G 6G 9G11G13
  35513033.476 9 -34387441.664 8  20399398.283    20399400.962       -3110.182
     -2420.201
  16926829.051 9 -60947371.203 7  18473141.848    18473142.747        -501.324
      -392.400
  26665535.522 9 -41291017.371 9  19779871.611    19779874.456       -1802.835
     -1406.260
  -3106880.883 9 -28840382.590 7  19192358.363    19192360.885         907.944
       725.161
 88  3 27  5 51 41.0800000  0  4G 6G 9G11G13
  35606562.132 8 -34314562.200 8  20417196.981    20417198.572       -3118.747
     -2426.899
  16942030.274 8 -60935526.084 7  18476034.690    18476036.059        -524.346
      -413.981
  26719892.444 9 -41248661.331 8  19790215.647    19790218.363       -1796.351
     -1411.467
  -3134191.892 9 -28861663.870 8  19187161.685    19187164.447         896.150
       697.093
 88  3 27  5 52 11.0800000  0  4G 6G 9G11G13
  35700511.210 9 -34241355.159 8  20435073.564    20435075.496       -3133.763
     -2454.818
  16957881.321 8 -60923174.645 6  18479049.751    18479051.529        -522.320
      -403.877
  26774487.707 8 -41206119.570 8  19800605.277    19800608.134       -1820.035
     -1409.330
  -3161061.011 9 -28882600.825 7  19182047.673    19182050.910         888.423
       697.932
 88  3 27  5 52 41.0800000  0  4G 6G 9G11G13
  35794878.547 9 -34167822.188 7  20453031.629    20453034.512       -3149.273
     -2459.795
  16974382.402 8 -60910316.665 7  18482189.258    18482192.110        -549.824
      -445.149
  26829319.579 9 -41163393.453 8  19811039.140    19811042.127       -1827.611
     -1418.097
  -3187488.997 9 -28903194.044 8  19177019.495    19177021.588         879.436
       678.850
 88  3 27  5 53 11.0800000  0  4G 6G 9G11G13
  35889660.844 9 -34093965.886 8  20471068.196    20471070.858       -3153.124
     -2469.060
  16991532.807 8 -60896952.704 7  18485454.182    18485456.266        -582.192
      -453.246
  26884384.619 9 -41120485.636 8  19821518.304    19821520.191       -1835.314
     -1434.725
  -3213477.683 9 -28923444.935 8  19172074.094    19172076.362         860.752
       671.151
 88  3 27  5 53 41.0800000  0  4G 6G 9G11G13
  35984856.117 9 -34019787.762 9  20489183.816    20489186.900       -3177.119
     -2484.308
  17009333.157 8 -60883082.329 7  18488840.404    18488842.603        -607.494
      -467.562
  26939681.293 9 -41077397.331 8  19832040.947    19832042.446       -1845.545
     -1435.856
  -3239027.431 9 -28943353.815 8  19167211.515    19167215.085         852.993
       656.070
 88  3 27  5 54 11.0800000  0  4G 6G 9G11G13
  36080461.583 9 -33945290.034 8  20507377.622    20507378.974       -3180.484
     -2494.847
  17027783.017 8 -60868705.828 7  18492351.657    18492353.930        -622.414
      -483.731
  26995206.789 9 -41034130.702 7  19842606.830    19842608.858       -1853.775
     -1438.988
  -3264139.534 9 -28962921.670 7  19162431.900    19162435.875         831.040
       647.495
 88  3 27  5 54 41.0800000  0  4G 6G 9G11G13
  36176475.829 8 -33870473.761 8  20525646.527    20525650.494       -3197.765
     -2499.855
  17046883.321 9 -60853822.469 7  18495986.206    18495988.649        -665.029
      -487.422
  27050959.616 9 -40990686.945 8  19853215.917    19853218.132       -1849.349
     -1448.178
  -3288814.373 9 -28982148.803 8  19157737.464    19157740.297         818.289
       635.335
 88  3 27  5 55 11.0800000  0  4G 6G 9G11G13
  36272896.163 9 -33795341.071 9  20543994.552    20543997.296       -3225.101
     -2504.037
  17066633.996 8 -60838432.337 7  18499744.809    18499746.343        -660.045
      -522.952
  27106937.325 9 -40947067.955 7  19863867.255    19863870.314       -1869.524
     -1468.299
  -3313052.832 9 -29001035.878 8  19153126.096    19153127.391         809.987
       623.342
 88  3 27  5 55 41.0800000  0  4G 6G 9G11G13
  36369720.152 9 -33719893.820 7  20562420.357    20562423.523       -3229.383
     -2524.505
  17087035.099 7 -60822535.400 7  18503628.296    18503628.422        -686.050
      -528.756
  27163137.785 9 -40903275.382 8  19874562.428    19874564.656       -1882.028
     -1462.240
  -3336855.972 8 -29019583.763 8  19148595.538    19148598.156         778.313
       616.370
 88  3 27  5 56 11.0800000  0  4G 6G 9G11G13
  36466945.963 9 -33644133.463 9  20580922.001    20580926.050       -3233.442
     -2521.417
  17108087.147 8 -60806131.205 7  18507632.951    18507636.360        -703.171
      -552.673
  27219558.736 9 -40859311.009 8  19885299.240    19885302.342       -1878.862
     -1459.326
  -3360224.576 9 -29037793.041 8  19144147.468    19144150.949         771.304
       606.975
 88  3 27  5 56 41.0800000  0  4G 6G 9G11G13
  36564571.452 9 -33568061.684 8  20599499.613    20599502.521       -3247.501
     -2526.842
  17129790.427 8 -60789219.568 7  18511763.044    18511765.023        -728.713
      -569.618
  27276198.623 9 -40815176.038 8  19896077.064    19896080.394       -1900.584
     -1471.374
  -3383158.817 9 -29055663.859 8  19139783.378    19139787.056         760.554
       591.179
 88  3 27  5 57 11.0800000  0  4G 6G 9G11G13
  36662593.802 9 -33491680.668 9  20618152.860    20618156.431       -3260.491
     -2546.831
  17152144.378 8 -60771800.924 6  18516016.936    18516019.185        -744.478
      -583.947
  27333054.984 9 -40770872.396 8  19906896.214    19906899.658       -1876.860
     -1483.025
  -3405660.437 8 -29073197.558 8  19135502.268    19135504.458         752.349
       583.648
 88  3 27  5 57 41.0800000  0  4G 6G 9G11G13
  36761010.408 8 -33414992.432 8  20636880.310    20636884.135       -3280.874
     -2564.845
  17175148.955 8 -60753875.306 7  18520393.999    18520397.732        -772.149
      -602.451
  27390125.485 9 -40726401.872 8  19917756.595    19917759.482       -1895.425
     -1475.109
  -3427730.358 9 -29090394.886 8  19131302.631    19131305.171         718.003
       571.395
 88  3 27  5 58 11.0800000  0  4G 6G 9G11G13
  36859820.657 9 -33337997.455 6  20655683.652    20655685.233       -3304.932
     -2571.885
  17198805.865 8 -60735441.344 6  18524896.387    18524898.358        -790.721
      -628.431
  27447409.555 9 -40681764.944 9  19928656.704    19928660.778       -1904.898
     -1495.583
  -3449367.895 9 -29107255.281 8  19127184.585    19127186.939         708.346
       554.692
 88  3 27  5 58 41.0800000  0  4G 6G 9G11G13
  36959020.818 9 -33260698.653 8  20674559.966    20674563.231       -3306.160
     -2584.033
  17223113.508 9 -60716500.317 7  18529522.996    18529523.987        -820.091
      -632.004
  27504903.625 9 -40636964.387 9  19939597.420    19939601.007       -1909.276
     -1502.157
  -3470575.179 9 -29123780.412 8  19123149.080    19123152.685         699.933
       531.223
 88  3 27  5 59 11.0800000  0  4G 6G 9G11G13
  37058609.679 8 -33183096.973 6  20693511.809    20693514.896       -3324.286
     -2593.149
  17248073.325 9 -60697051.131 7  18534270.930    18534274.232        -842.578
      -663.831
  27562606.833 9 -40592000.852 8  19950578.709    19950581.682       -1924.675
     -1499.510
  -3491351.978 9 -29139970.113 8  19119195.040    19119199.039         684.256
       534.367
 88  3 27  5 59 41.0800000  0  4G 6G 9G11G13
  37158584.298 9 -33105194.714 8  20712535.812    20712539.278       -3332.324
     -2594.242
  17273684.397 8 -60677094.473 7  18539145.860    18539146.995        -862.969
      -679.738
  27620516.686 9 -40546876.287 8  19961598.529    19961602.373       -1929.627
     -1495.770
  -3511700.055 9 -29155825.727 8  19115323.383    19115326.706         661.537
       532.360
 88  3 27  6  0 11.0800000  0  4G 6G 9G11G13
  37258941.715 9 -33026994.157 8  20731634.641    20731637.038       -3347.595
     -2603.787
  17299946.321 9 -60656630.626 6  18544142.773    18544144.500        -891.988
      -684.883
  27678630.648 9 -40501592.681 8  19972657.203    19972660.576       -1932.426
     -1509.856
  -3531619.774 9 -29171347.570 8  19111532.415    19111535.607         663.371
       514.930
 88  3 27  6  0 41.0800000  0  4G 6G 9G11G13
  37359681.119 9 -32948495.954 7  20750803.616    20750807.201       -3360.450
     -2612.791
  17326860.248 8 -60635658.746 6  18549263.987    18549266.931        -908.638
      -702.965
  27736947.757 9 -40456150.814 9  19983753.851    19983757.869       -1951.357
     -1508.595
  -3551111.905 9 -29186536.239 8  19107824.141    19107826.771         639.655
       510.388
 88  3 27  6  1 11.0800000  0  4G 6G 9G11G13
  37460798.463 8 -32869703.231 7  20770045.734    20770048.859       -3382.004
     -2630.519
  17354424.851 8 -60614179.852 7  18554509.908    18554511.192        -929.834
      -729.734
  27795464.611 9 -40410553.265 8  19994889.541    19994892.685       -1959.921
     -1510.440
  -3570178.298 9 -29201393.148 9  19104196.015    19104197.722         627.638
       481.711
 88  3 27  6  1 41.0800000  0  4G 6G 9G11G13
  37562292.059 9 -32790617.365 9  20789360.079    20789362.133       -3391.629
     -2637.136
  17382640.263 8 -60592193.842 6  18559878.773    18559881.617        -937.569
      -731.984
  27854179.637 9 -40364801.325 8  20006062.597    20006066.257       -1958.095
     -1515.666
  -3588819.575 9 -29215918.784 8  19100646.966    19100650.715         629.727
       463.095
 88  3 27  6  2 11.0800000  0  4G 6G 9G11G13
  37664159.133 9 -32711240.445 8  20808744.377    20808746.655       -3413.120
     -2656.498
  17411505.966 8 -60569701.066 6  18565371.909    18565374.716        -960.017
      -764.302
  27913090.462 9 -40318896.791 9  20017272.543    20017276.518       -1969.355
     -1523.390
  -3607037.377 8 -29230114.459 7  19097181.094    19097184.199         599.353
       476.336
 88  3 27  6  2 41.0800000  0  4G 6G 9G11G13
  37766397.581 9 -32631574.160 8  20828199.222    20828202.563       -3415.210
     -2654.348
  17441022.039 9 -60546701.538 7  18570989.050    18570991.043       -1006.396
      -768.577
  27972195.418 9 -40272840.989 8  20028520.695    20028524.213       -1970.535
     -1526.547
  -3624832.446 8 -29243980.722 8  19093794.976    19093798.077         578.133
       462.380
 88  3 27  6  3 11.0800000  0  4G 6G 9G11G13
  37869004.559 8 -32551620.708 8  20847724.389    20847727.819       -3416.637
     -2663.315
  17471187.891 9 -60523195.689 6  18576729.582    18576731.031       -1028.971
      -775.872
  28031491.968 9 -40226635.906 8  20039804.573    20039808.217       -1960.830
     -1536.383
  -3642205.400 9 -29257518.079 8  19090488.231    19090491.776         580.501
       440.315
 88  3 27  6  3 41.0800000  0  4G 6G 9G11G13
  37971978.011 9 -32471381.686 8  20867320.958    20867323.355       -3438.192
     -2674.003
  17502003.646 9 -60499183.425 6  18582592.864    18582596.102       -1040.159
      -808.438
  28090979.002 9 -40180282.401 8  20051125.241    20051128.013       -1988.039
     -1544.815
  -3659157.145 9 -29270727.204 8  19087263.334    19087267.100         555.502
       436.605
 88  3 27  6  4 11.0800000  0  4G 6G 9G11G13
  38075314.428 9 -32390859.823 8  20886984.758    20886987.792       -3457.968
     -2693.707
  17533468.035 9 -60474665.719 7  18588579.938    18588583.811       -1054.338
      -826.999
  28150653.082 9 -40133783.137 9  20062479.960    20062484.179       -1983.924
     -1555.590
  -3675689.393 8 -29283609.454 8  19084115.863    19084120.152         542.296
       436.382
 88  3 27  6  4 41.0800000  0  4G 6G 9G11G13
  38179011.108 9 -32310057.248 9  20906716.036    20906720.697       -3452.705
     -2694.707
  17565580.096 9 -60449643.371 7  18594691.022    18594692.778       -1076.753
      -843.981
  28210511.768 9 -40087140.021 8  20073870.349    20073874.423       -2006.946
     -1542.553
  -3691804.585 9 -29296166.732 8  19081050.289    19081052.829         537.966
       422.152
 88  3 27  6  5 11.0800000  0  4G 6G 9G11G13
  38283066.584 9 -32228975.094 8  20926518.145    20926522.387       -3472.681
     -2698.827
  17598340.869 8 -60424115.500 7  18600925.679    18600926.950       -1104.799
      -848.927
  28270554.552 9 -40040353.466 9  20085296.473    20085300.176       -1996.284
     -1559.865
  -3707501.982 9 -29308398.461 8  19078062.988    19078067.209         523.708
       393.084
 88  3 27  6  5 41.0800000  0  4G 6G 9G11G13
  38387478.632 9 -32147615.078 8  20946386.780    20946390.021       -3477.370
     -2715.275
  17631750.059 9 -60398082.378 7  18607282.835    18607284.856       -1114.648
      -871.844
  28330779.631 9 -39993424.826 8  20096756.511    20096760.814       -2013.118
     -1560.940
  -3722782.847 9 -29320305.577 7  19075154.915    19075158.384         495.104
       401.187
 88  3 27  6  6 11.0800000  0  4G 6G 9G11G13
  38492243.954 9 -32065979.793 9  20966323.772    20966326.384       -3486.955
     -2735.239
  17665806.220 8 -60371545.116 6  18613763.511    18613766.054       -1158.849
      -893.412
  28391184.250 9 -39946356.308 8  20108251.519    20108255.408       -2010.758
     -1564.283
  -3737648.671 9 -29331889.336 7  19072326.527    19072328.884         480.774
       385.137
 88  3 27  6  6 41.0800000  0  4G 6G 9G11G13
  38597359.938 9 -31984071.267 9  20986327.177    20986331.012       -3509.171
     -2735.842
  17700509.109 8 -60344503.929 7  18620368.077    18620368.861       -1165.030
      -895.736
  28451766.396 9 -39899149.456 9  20119780.037    20119782.981       -2020.207
     -1581.675
  -3752100.813 9 -29343150.750 7  19069576.864    19069579.566         475.567
       347.009
 88  3 27  6  7 11.0800000  0  4G 6G 9G11G13
  38702823.821 9 -31901891.655 9  21006395.753    21006399.627       -3524.705
     -2749.345
  17735857.895 8 -60316959.435 7  18627094.049    18627096.385       -1198.641
      -934.969
  28512523.490 9 -39851806.278 9  20131342.043    20131345.115       -2024.027
     -1577.904
  -3766140.321 8 -29354090.608 8  19066904.060    19066907.105         445.942
       346.661
 88  3 27  6  7 41.0800000  0  4G 6G 9G11G13
  38808633.151 9 -31819442.870 8  21026530.672    21026534.486       -3529.059
     -2755.646
  17771851.991 8 -60288912.072 7  18633943.566    18633945.823       -1202.581
      -929.731
  28573453.549 9 -39804328.329 8  20142936.322    20142939.652       -2045.741
     -1583.999
  -3779768.279 9 -29364709.776 8  19064311.180    19064314.750         452.074
       366.893
 88  3 27  6  8 11.0800000  0  4G 6G 9G11G13
  38914784.716 9 -31736727.381 9  21046730.695    21046734.272       -3539.857
     -2757.398
  17808490.391 9 -60260362.699 6  18640915.882    18640918.517       -1232.612
      -961.502
  28634554.218 9 -39756717.438 8  20154564.489    20154567.876       -2031.467
     -1594.482
  -3792986.724 9 -29375009.839 7  19061796.020    19061799.233         418.319
       340.938
 88  3 27  6  8 41.0800000  0  4G 6G 9G11G13
  39021276.524 9 -31653746.801 9  21066994.719    21066999.373       -3560.909
     -2773.703
  17845773.044 8 -60231311.299 7  18648010.326    18648013.099       -1245.347
      -978.019
  28695824.031 9 -39708974.756 8  20166222.898    20166226.658       -2038.836
     -1589.045
  -3805796.083 9 -29384991.137 7  19059357.642    19059360.582         424.555
       321.793
 88  3 27  6  9 11.0800000  0  4G 6G 9G11G13
  39128105.778 9 -31570503.243 8  21087324.176    21087328.426       -3578.349
     -2775.673
  17883698.944 9 -60201758.669 6  18655227.319    18655229.606       -1276.057
     -1011.691
  28757260.632 9 -39661102.118 8  20177914.107    20177917.409       -2053.221
     -1601.242
  -3818197.909 9 -29394654.887 8  19056997.970    19057001.862         410.950
       318.376
 88  3 27  6  9 41.0800000  0  4G 6G 9G11G13
  39235269.900 9 -31486998.774 8  21107715.921    21107720.993       -3571.938
     -2789.660
  17922267.504 9 -60171705.261 7  18662566.453    18662569.848       -1289.007
     -1005.160
  28818862.549 9 -39613100.613 8  20189637.685    20189639.012       -2056.379
     -1605.692
  -3830193.589 9 -29404002.163 8  19054715.991    19054718.773         398.064
       299.567
 88  3 27  6 10 11.0800000  0  4G 6G 9G11G13
  39342766.058 9 -31403235.555 8  21128172.432    21128176.786       -3594.178
     -2785.950
  17961477.733 9 -60141151.842 7  18670028.924    18670031.080       -1323.089
     -1018.358
  28880627.279 9 -39564972.270 8  20201390.392    20201393.322       -2063.381
     -1606.673
  -3841784.359 9 -29413033.917 7  19052510.867    19052513.750         378.583
       286.729
 88  3 27  6 10 41.0800000  0  4G 6G 9G11G13
  39450591.567 9 -31319215.693 9  21148690.359    21148694.727       -3586.236
     -2813.639
  18001329.017 9 -60110098.925 6  18677612.902    18677613.714       -1346.701
     -1031.985
  28942552.948 9 -39516718.528 9  20213173.574    20213177.148       -2071.546
     -1616.243
  -3852970.924 9 -29421750.695 9  19050379.694    19050383.661         371.270
       283.647
 88  3 27  6 11 11.0800000  0  4G 6G 9G11G13
  39558744.422 9 -31234940.795 9  21169272.171    21169275.177       -3617.511
     -2808.786
  18041821.068 9 -60078546.691 6  18685317.456    18685319.206       -1356.901
     -1053.497
  29004638.013 9 -39468340.573 8  20224989.188    20224991.517       -2076.618
     -1606.294
  -3863754.930 9 -29430153.802 8  19048328.959    19048331.924         360.082
       285.567
 88  3 27  6 11 41.0800000  0  4G 6G 9G11G13
  39667222.118 9 -31150412.750 9  21189914.317    21189918.013       -3622.487
     -2808.829
  18082953.301 8 -60046495.618 7  18693144.085    18693146.986       -1387.993
     -1071.865
  29066880.619 9 -39419839.869 8  20236833.042    20236835.714       -2075.350
     -1613.583
  -3874136.957 9 -29438243.704 8  19046353.562    19046356.713         345.744
       261.911
 88  3 27  6 12 11.0800000  0  4G 6G 9G11G13
  39776021.351 9 -31065634.163 9  21210617.246    21210621.020       -3626.618
     -2829.851
  18124724.313 8 -60013946.814 7  18701094.364    18701095.235       -1403.790
     -1082.864
  29129278.360 9 -39371218.286 8  20248707.828    20248710.773       -2080.526
     -1622.860
  -3884118.807 9 -29446021.743 8  19044453.810    19044457.298         321.582
       249.328
 88  3 27  6 12 41.0800000  0  4G 6G 9G11G13
  39885138.716 9 -30980607.669 9  21231383.436    21231386.133       -3639.815
     -2843.322
  18167132.288 9 -59980901.651 7  18709163.673    18709165.093       -1420.847
     -1115.095
  29191828.545 9 -39322477.906 8  20260609.864    20260613.553       -2084.441
     -1621.854
  -3893702.430 9 -29453489.485 8  19042629.589    19042633.929         322.363
       234.154
 88  3 27  6 13 11.0800000  0  4G 6G 9G11G13
  39994572.483 8 -30895334.630 6  21252208.069    21252208.633       -3652.128
     -2853.071
  18210177.227 9 -59947360.172 7  18717354.535    18717355.433       -1425.544
     -1124.098
  29254530.133 9 -39273619.568 8  20272541.400    20272544.918       -2100.517
     -1627.502
  -3902888.466 9 -29460647.405 8  19040882.244    19040884.552         313.528
       227.313
 88  3 27  6 13 41.0800000  0  4G 6G 9G11G13
  40104320.229 9 -30809816.954 8  21273091.597    21273094.756       -3656.290
     -2841.296
  18253858.620 9 -59913322.726 7  18725666.799    18725668.626       -1463.318
     -1136.377
  29317381.707 9 -39224644.335 8  20284500.703    20284503.776       -2098.954
     -1637.046
  -3911678.247 9 -29467496.553 8  19039209.505    19039212.041         285.506
       226.225
 88  3 27  6 14 11.0800000  0  4G 6G 9G11G13
  40214378.702 9 -30724057.122 9  21294035.906    21294038.281       -3673.634
     -2864.250
  18298174.977 7 -59878790.523 7  18734099.240    18734101.862       -1493.350
     -1149.712
  29380380.814 9 -39175554.155 8  20296488.934    20296492.679       -2090.828
     -1620.990
  -3920072.979 9 -29474037.877 8  19037612.221    19037614.611         273.983
       208.858
 88  3 27  6 14 41.0800000  0  4G 6G 9G11G13
  40324745.917 9 -30638056.744 9  21315036.705    21315040.780       -3686.242
     -2864.082
  18343126.154 8 -59843763.640 6  18742653.892    18742655.406       -1517.361
     -1175.990
  29443526.358 8 -39126349.857 7  20308505.665    20308510.169       -2108.675
     -1630.857
  -3928073.524 9 -29480272.064 8  19036090.658    19036091.675         261.184
       188.601
 88  3 27  6 15 11.0800000  0  4G 6G 9G11G13
  40435418.516 9 -30551818.384 8  21336098.528    21336101.143       -3690.341
     -2878.970
  18388710.176 8 -59808243.644 7  18751328.045    18751330.731       -1528.453
     -1179.010
  29506815.073 9 -39077033.992 9  20320549.701    20320552.587       -2112.877
     -1639.476
  -3935681.579 9 -29486200.396 8  19034642.574    19034645.891         243.361
       177.832
 88  3 27  6 15 41.0800000  0  4G 6G 9G11G13
  40546394.704 9 -30465343.465 8  21357215.949    21357218.300       -3696.258
     -2888.925
  18434927.303 9 -59772230.306 7  18760123.421    18760124.532       -1556.467
     -1194.016
  29570246.355 9 -39027607.028 8  20332620.235    20332623.923       -2112.096
     -1650.785
  -3942897.864 9 -29491823.475 8  19033267.901    19033271.822         225.762
       185.053
 88  3 27  6 16 11.0800000  0  4G 6G 9G11G13
  40657671.736 9 -30378634.114 8  21378390.914    21378394.091       -3713.036
     -2891.746
  18481776.182 9 -59735724.705 8  18769037.278    18769040.794       -1553.923
     -1239.979
  29633818.154 9 -38978070.572 8  20344717.722    20344720.723       -2119.847
     -1645.715
  -3949723.648 9 -29497142.246 8  19031969.500    19031972.244         223.234
       175.191
 88  3 27  6 16 41.0800000  0  4G 6G 9G11G13
  40769245.835 9 -30291693.270 8  21399623.073    21399625.394       -3718.092
     -2894.151
  18529254.819 9 -59698728.384 7  18778073.170    18778075.892       -1589.130
     -1224.588
  29697527.681 9 -38928426.796 8  20356841.340    20356844.786       -2121.346
     -1642.670
  -3956161.595 9 -29502158.822 8  19030745.057    19030747.278         210.882
       160.738
 88  3 27  6 17 11.0800000  0  4G 6G 9G11G13
  40881114.396 8 -30204523.011 8  21420909.878    21420914.493       -3727.326
     -2897.923
  18577362.209 9 -59661242.130 7  18787227.273    18787229.737       -1613.300
     -1262.181
  29761373.307 9 -38878676.974 8  20368990.032    20368993.147       -2125.748
     -1661.379
  -3962213.299 9 -29506874.431 8  19029593.346    19029595.954         187.477
       163.193
 88  3 27  6 17 41.0800000  0  4G 6G 9G11G13
  40993274.853 8 -30117125.281 8  21442253.709    21442257.104       -3749.120
     -2919.124
  18626097.364 9 -59623266.689 7  18796500.776    18796502.575       -1629.839
     -1275.963
  29825353.418 9 -38828822.377 8  20381164.470    20381169.575       -2125.341
     -1646.796
  -3967879.550 9 -29511289.672 8  19028514.955    19028517.516         169.367
       141.817
 88  3 27  6 18 11.0800000  0  4G 6G 9G11G13
  41105724.541 9 -30029502.193 8  21463653.137    21463655.996       -3751.121
     -2914.470
  18675459.021 9 -59584803.073 8  18805893.776    18805896.139       -1647.390
     -1287.024
  29889466.143 9 -38778864.420 9  20393365.842    20393369.674       -2136.824
     -1673.049
  -3973161.308 9 -29515405.315 7  19027509.832    19027511.284         166.871
       143.613
 88  3 27  6 18 41.0800000  0  4G 6G 9G11G13
  41218460.538 9 -29941655.994 9  21485106.686    21485109.955       -3776.647
     -2926.748
  18725445.971 8 -59545852.225 6  18815406.137    18815407.836       -1685.372
     -1296.997
  29953709.431 9 -38728804.716 9  20405590.743    20405594.330       -2137.175
     -1659.683
  -3978060.653 9 -29519222.975 8  19026576.349    19026579.358         157.852
       114.296
 88  3 27  6 19 11.0800000  0  4G 6G 9G11G13
  41331480.040 9 -29853588.878 8  21506613.643    21506615.392       -3763.697
     -2919.590
  18776056.937 9 -59506415.112 6  18825037.913    18825041.043       -1702.693
     -1330.309
  30018081.670 9 -38678644.542 8  20417840.105    20417844.651       -2148.164
     -1673.273
  -3982578.614 9 -29522743.455 8  19025717.878    19025719.720         138.546
       106.604
 88  3 27  6 19 41.0800000  0  4G 6G 9G11G13
  41444779.746 9 -29765303.430 8  21528173.281    21528175.799       -3786.296
     -2928.861
  18827290.180 9 -59466493.119 6  18834786.358    18834789.352       -1728.442
     -1354.704
  30082580.190 9 -38628385.967 8  20430113.679    20430116.823       -2166.146
     -1658.092
  -3986717.381 9 -29525968.448 8  19024931.233    19024932.875         125.692
        85.874
 88  3 27  6 20 11.0800000  0  4G 6G 9G11G13
  41558357.482 9 -29676801.332 6  21549786.380    21549789.252       -3776.783
     -2958.662
  18879145.056 8 -59426086.738 8  18844654.836    18844658.745       -1756.296
     -1365.373
  30147203.879 9 -38578029.880 9  20442411.117    20442415.377       -2165.947
     -1674.317
  -3990477.637 9 -29528898.502 8  19024214.646    19024217.830         114.799
        92.368
 88  3 27  6 20 41.0800000  0  4G 6G 9G11G13
  41672210.786 9 -29588084.532 9  21571451.102    21571454.723       -3792.660
     -2954.605
  18931620.405 9 -59385196.865 7  18854639.987    18854643.016       -1769.494
     -1367.430
  30211951.266 9 -38527577.387 8  20454733.108    20454736.281       -2162.430
     -1675.696
  -3993860.577 9 -29531534.563 8  19023570.889    19023573.812         103.954
        74.646
 88  3 27  6 21 11.0800000  0  4G 6G 9G11G13
  41786336.543 9 -29499155.392 6  21593168.964    21593173.479       -3818.361
     -2956.724
  18984714.541 9 -59343824.834 7  18864744.271    18864746.950       -1781.766
     -1372.016
  30276820.362 9 -38477030.040 8  20467077.166    20467080.625       -2172.247
     -1687.055
  -3996868.694 9 -29533878.527 8  19022998.078    19023001.005          92.455
        76.044
 88  3 27  6 21 41.0800000  0  4G 6G 9G11G13
  41900731.208 9 -29410016.730 8  21614938.336    21614942.049       -3813.473
     -2965.572
  19038425.502 9 -59301972.154 8  18874964.291    18874966.806       -1795.817
     -1393.161
  30341808.521 9 -38426389.922 9  20479444.718    20479447.763       -2163.810
     -1688.875
  -3999502.604 8 -29535930.910 9  19022496.950    19022499.304          86.673
        60.429
 88  3 27  6 22 11.0800000  0  4G 6G 9G11G13
  42015392.812 8 -29320670.064 8  21636756.709    21636760.333       -3833.034
     -2984.381
  19092752.717 8 -59259639.268 6  18885303.346    18885306.025       -1814.429
     -1428.537
  30406914.700 9 -38375657.825 8  20491833.448    20491836.750       -2169.655
     -1689.354
  -4001763.983 9 -29537693.004 7  19022066.221    19022068.765          65.238
        49.810
 88  3 27  6 22 41.0800000  0  4G 6G 9G11G13
  42130317.175 9 -29231118.666 8  21658627.662    21658629.662       -3840.641
     -2983.679
  19147693.345 9 -59216828.402 7  18895758.050    18895759.469       -1833.751
     -1425.150
  30472135.727 9 -38324836.260 8  20504244.383    20504247.856       -2170.596
     -1700.278
  -4003655.752 9 -29539167.095 7  19021706.660    19021707.802          50.342
        39.097
 88  3 27  6 23 11.0800000  0  4G 6G 9G11G13
  42245502.541 9 -29141363.863 9  21680546.582    21680549.247       -3846.375
     -2983.816
  19203247.037 9 -59173539.834 7  18906329.976    18906330.186       -1855.697
     -1432.923
  30537471.020 9 -38273925.662 8  20516677.211    20516680.785       -2178.355
     -1692.697
  -4005178.343 9 -29540353.520 8  19021417.129    19021419.233          54.975
        40.104
 88  3 27  6 23 41.0800000  0  4G 6G 9G11G13
  42360947.134 9 -29051407.093 9  21702514.034    21702517.879       -3856.167
     -3006.807
  19259413.231 9 -59129773.973 7  18917017.883    18917021.385       -1888.543
     -1466.366
  30602920.029 9 -38222926.470 9  20529131.332    20529133.976       -2176.856
     -1706.796
  -4006331.935 9 -29541252.408 8  19021196.399    19021199.786          38.181
        31.230
 88  3 27  6 24 11.0800000  0  4G 6G 9G11G13
  42476647.313 9 -28961251.145 9  21724532.420    21724535.601       -3866.000
     -3009.615
  19316189.872 9 -59085532.457 7  18927820.772    18927824.461       -1905.664
     -1494.993
  30668480.076 9 -38171840.747 9  20541607.173    20541610.288       -2196.752
     -1698.420
  -4007118.934 9 -29541865.639 8  19021047.867    19021050.883          25.319
        19.928
 88  3 27  6 24 41.0800000  0  4G 6G 9G11G13
  42592599.870 8 -28870898.528 6  21746596.587    21746599.524       -3860.218
     -3016.078
  19373574.960 9 -59040816.791 7  18938741.810    18938742.356       -1921.573
     -1502.300
  30734149.169 9 -38120670.007 8  20554104.820    20554106.862       -2196.528
     -1707.896
  -4007540.746 9 -29542194.305 7  19020966.762    19020970.654          11.164
        14.907
 88  3 27  6 25 11.0800000  0  4G 6G 9G11G13
  42708801.348 9 -28780351.984 8  21768707.589    21768712.709       -3885.226
     -3019.943
  19431566.132 9 -58995628.882 7  18949777.602    18949778.757       -1928.630
     -1507.806
  30799924.700 9 -38069416.348 8  20566620.862    20566624.064       -2198.961
     -1710.238
  -4007599.655 9 -29542240.196 8  19020955.362    19020959.286           0.064
       -14.652
 88  3 27  6 25 41.0800000  0  4G 6G 9G11G13
  42825248.985 9 -28689613.616 7  21790867.302    21790870.801       -3884.397
     -3021.111
  19490162.108 9 -58949969.678 7  18960928.641    18960930.125       -1960.894
     -1534.917
  30865805.356 9 -38018080.786 9  20579156.915    20579160.732       -2192.270
     -1705.951
  -4007297.362 9 -29542004.636 8  19021013.988    19021016.145         -15.725
        -1.485
 88  3 27  6 26 11.0800000  0  4G 6G 9G11G13
  42941940.526 9 -28598685.175 9  21813073.830    21813078.127       -3889.963
     -3029.257
  19549361.652 9 -58903840.166 8  18972193.417    18972195.775       -1972.928
     -1541.659
  30931789.843 9 -37966664.322 9  20591713.426    20591717.043       -2201.305
     -1722.672
  -4006635.049 9 -29541488.514 9  19021139.623    19021142.728         -21.284
       -18.772
 88  3 27  6 26 41.0800000  0  4G 6G 9G11G13
  43058872.960 9 -28507569.014 8  21835325.510    21835329.105       -3895.625
     -3044.972
  19609163.247 9 -58857241.531 6  18983572.861    18983575.661       -2005.686
     -1545.965
  30997876.190 9 -37915168.488 9  20604289.652    20604292.740       -2204.383
     -1716.359
  -4005614.011 9 -29540692.893 7  19021333.597    19021336.297         -35.526
       -28.838
 88  3 27  6 27 11.0800000  0  4G 6G 9G11G13
  43176042.980 9 -28416267.703 7  21857622.065    21857626.691       -3900.625
     -3035.446
  19669564.321 9 -58810175.802 7  18995066.459    18995069.468       -2029.537
     -1572.883
  31064062.024 9 -37863595.126 8  20616884.541    20616886.512       -2190.436
     -1721.305
  -4004236.629 9 -29539619.590 7  19021595.181    19021599.634         -55.286
       -37.885
 88  3 27  6 27 41.0800000  0  4G 6G 9G11G13
  43293447.440 9 -28324783.750 9  21879963.869    21879965.025       -3929.396
     -3043.636
  19730563.449 9 -58762644.041 7  19006674.385    19006675.606       -2048.812
     -1586.075
  31130345.809 9 -37811945.424 8  20629497.770    20629501.086       -2212.055
     -1714.899
  -4002504.032 9 -29538269.503 8  19021925.679    19021928.033         -50.318
       -60.392
 88  3 27  6 28 11.0800000  0  4G 6G 9G11G13
  43411083.678 9 -28233119.199 8  21902348.029    21902352.655       -3931.764
     -3058.940
  19792159.083 9 -58714647.451 8  19018396.138    19018398.511       -2059.330
     -1622.021
  31196726.118 9 -37760220.504 8  20642129.398    20642132.186       -2204.774
     -1718.018
  -4000418.222 9 -29536644.184 8  19022323.145    19022325.617         -68.914
       -66.282
 88  3 27  6 28 41.0800000  0  4G 6G 9G11G13
  43528948.842 8 -28141276.217 8  21924777.918    21924781.359       -3930.417
     -3058.487
  19854349.245 9 -58666187.604 7  19030231.757    19030233.178       -2078.141
     -1621.816
  31263201.324 9 -37708421.650 9  20654778.890    20654782.879       -2215.061
     -1723.107
  -3997980.457 9 -29534744.625 7  19022785.753    19022789.935         -85.358
       -71.875
 88  3 27  6 29 11.0800000  0  4G 6G 9G11G13
  43647040.615 8 -28049256.679 8  21947250.436    21947252.657       -3945.265
     -3070.790
  19917132.543 9 -58617265.552 7  19042178.031    19042178.979       -2106.490
     -1640.041
  31329770.003 9 -37656549.956 9  20667446.665    20667450.281       -2206.114
     -1729.507
  -3995191.579 9 -29532571.458 8  19023316.216    19023320.197         -97.805
       -82.333
 88  3 27  6 29 41.0800000  0  4G 6G 9G11G13
  43765355.260 9 -27957063.512 6  21969764.512    21969767.649       -3944.149
     -3070.759
  19980506.629 9 -58567883.173 8  19054236.379    19054240.067       -2124.456
     -1663.803
  31396429.882 9 -37604607.200 8  20680132.269    20680134.683       -2208.434
     -1730.763
  -3992054.083 9 -29530126.649 8  19023914.642    19023917.580        -115.931
       -82.656
 88  3 27  6 30 11.0800000  0  4G 6G 9G11G13
  43883890.268 9 -27864698.617 7  21992321.853    21992325.681       -3957.506
     -3077.209
  20044470.113 9 -58518041.519 7  19066409.955    19066410.768       -2122.542
     -1670.986
  31463179.445 9 -37552594.539 8  20692834.210    20692836.682       -2229.917
     -1728.756
  -3988569.474 9 -29527411.345 9  19024578.185    19024580.020        -116.856
       -86.154
 88  3 27  6 30 41.0800000  0  4G 6G 9G11G13
  44002642.793 9 -27772164.212 8  22014919.068    22014922.988       -3960.783
     -3087.834
  20109021.392 9 -58467741.825 7  19078692.479    19078694.457       -2161.824
     -1680.176
  31530017.466 9 -37500513.012 8  20705552.063    20705555.393       -2227.676
     -1746.104
  -3984739.231 9 -29524426.728 7  19025305.696    19025308.756        -124.942
      -108.903
 88  3 27  6 31 11.0800000  0  4G 6G 9G11G13
  44121609.851 9 -27679462.648 8  22037557.745    22037561.096       -3966.134
     -3086.324
  20174157.903 8 -58416986.123 7  19091086.894    19091090.482       -2183.825
     -1705.112
  31596942.175 9 -37448363.905 8  20718287.802    20718291.033       -2244.151
     -1733.776
  -3980565.223 9 -29521174.250 8  19026099.781    19026102.940        -143.674
      -123.735
 88  3 27  6 31 41.0800000  0  4G 6G 9G11G13
  44240788.607 9 -27586596.137 7  22060234.392    22060240.066       -3966.844
     -3087.337
  20239878.227 9 -58365775.501 7  19103593.811    19103597.042       -2203.992
     -1706.274
  31663951.738 9 -37396148.684 9  20731039.737    20731042.124       -2236.751
     -1737.188
  -3976048.551 9 -29517654.753 8  19026958.609    19026962.813        -146.864
      -127.625
 88  3 27  6 32 11.0800000  0  4G 6G 9G11G13
  44360177.033 8 -27493566.210 6  22082954.370    22082959.354       -4002.090
     -3091.370
  20306181.255 9 -58314110.821 8  19116209.712    19116212.521       -2217.732
     -1728.967
  31731045.559 9 -37343867.779 8  20743806.615    20743810.590       -2246.073
     -1734.050
  -3971189.676 9 -29513868.579 7  19027884.789    19027886.534        -158.546
      -128.750
 88  3 27  6 32 41.0800000  0  4G 6G 9G11G13
  44479771.168 8 -27400375.987 8  22105713.000    22105715.854       -3995.998
     -3108.247
  20373064.086 9 -58261994.356 6  19128937.034    19128941.221       -2241.911
     -1729.992
  31798220.859 9 -37291523.413 8  20756590.058    20756593.460       -2233.888
     -1743.998
  -3965991.763 9 -29509818.243 9  19028874.091    19028876.312        -172.238
      -137.791
 88  3 27  6 33 11.0800000  0  4G 6G 9G11G13
  44599567.976 9 -27307027.894 6  22128509.846    22128513.333       -3997.353
     -3107.917
  20440524.344 9 -58209427.947 8  19141775.565    19141778.987       -2262.038
     -1758.165
  31865476.023 9 -37239116.790 8  20769388.128    20769391.229       -2248.561
     -1735.616
  -3960456.932 9 -29505505.378 8  19029927.451    19029930.311        -197.955
      -154.854
 88  3 27  6 33 41.0800000  0  4G 6G 9G11G13
  44719563.703 9 -27213524.766 8  22151343.500    22151348.908       -3995.631
     -3123.893
  20508559.498 8 -58156413.574 8  19154722.279    19154723.807       -2269.302
     -1755.866
  31932808.783 9 -37186649.765 8  20782201.103    20782205.163       -2243.944
     -1744.178
  -3954587.129 9 -29500931.486 8  19031043.660    19031045.912        -207.126
      -147.149
 88  3 27  6 34 11.0800000  0  4G 6G 9G11G13
  44839755.789 9 -27119868.625 8  22174216.660    22174218.863       -4001.213
     -3130.287
  20577168.102 9 -58102952.351 7  19167778.377    19167780.348       -2293.154
     -1780.106
  32000218.050 9 -37134123.089 9  20795029.189    20795031.919       -2245.403
     -1754.220
  -3948383.605 9 -29496097.580 8  19032224.871    19032226.953        -220.188
      -167.343
 88  3 27  6 34 41.0800000  0  4G 6G 9G11G13
  44960141.522 8 -27026061.623 8  22197123.926    22197129.557       -4016.747
     -3125.422
  20646347.785 9 -58049046.144 8  19180942.663    19180944.848       -2317.659
     -1801.649
  32067702.356 9 -37081537.941 8  20807870.694    20807874.727       -2254.056
     -1756.326
  -3941847.691 9 -29491004.660 7  19033467.384    19033470.911        -223.418
      -170.662
 88  3 27  6 35 11.0800000  0  4G 6G 9G11G13
  45080717.931 8 -26932106.008 5  22220068.925    22220073.128       -4023.469
     -3140.117
  20716096.783 9 -57994696.330 8  19194216.107    19194217.299       -2340.545
     -1813.642
  32135259.965 8 -37028895.678 8  20820725.909    20820730.327       -2238.785
     -1747.391
  -3934981.502 8 -29485654.355 7  19034773.774    19034777.769        -227.859
      -193.367
 88  3 27  6 35 41.0800000  0  4G 6G 9G11G13
  45201482.442 9 -26838003.834 7  22243050.952    22243053.045       -4029.610
     -3146.524
  20786413.251 9 -57939904.303 7  19207595.971    19207599.180       -2366.518
     -1822.838
  32202889.738 8 -36976197.187 8  20833595.749    20833599.838       -2264.191
     -1749.516
  -3927786.133 9 -29480047.575 8  19036144.044    19036146.406        -235.730
      -198.071
 88  3 27  6 36 11.0800000  0  4G 6G 9G11G13
  45322431.499 9 -26743757.834 6  22266065.661    22266069.423       -4032.592
     -3142.149
  20857294.557 9 -57884672.114 8  19221084.254    19221086.503       -2365.792
     -1852.522
  32270589.595 9 -36923444.089 9  20846478.925    20846481.998       -2262.979
     -1758.892
  -3920263.365 9 -29474185.660 8  19037574.979    19037578.833        -244.813
      -196.741
 88  3 27  6 36 41.0800000  0  4G 6G 9G11G13
  45443561.658 8 -26649370.740 8  22289117.955    22289120.802       -4049.849
     -3144.293
  20928737.853 9 -57829002.033 7  19234679.472    19234682.123       -2383.822
     -1861.177
  32338357.839 9 -36870637.694 9  20859375.030    20859378.347       -2260.012
     -1739.300
  -3912415.936 9 -29468070.773 7  19039068.273    19039070.992        -279.549
      -221.552
 88  3 27  6 37 11.0800000  0  4G 6G 9G11G13
  45564870.686 8 -26554844.255 8  22312201.438    22312203.651       -4050.088
     -3158.715
  21000742.095 9 -57772894.839 7  19248382.521    19248384.264       -2414.372
     -1858.617
  32406193.392 8 -36817778.852 9  20872282.703    20872287.221       -2243.099
     -1761.900
  -3904244.919 9 -29461703.737 8  19040624.390    19040626.390        -278.935
      -217.706
 88  3 27  6 37 41.0800000  0  4G 6G 9G11G13
  45686355.432 7 -26460180.852 5  22335318.005    22335322.250       -4040.399
     -3162.885
  21073304.572 9 -57716352.647 8  19262189.418    19262192.112       -2436.437
     -1884.951
  32474094.281 9 -36764869.110 6  20885203.794    20885207.682       -2273.840
     -1762.242
  -3895751.813 9 -29455085.722 8  19042239.954    19042242.197        -288.329
      -212.965
 88  3 27  6 38 11.0800000  0  4G 6G 9G11G13
  45808013.710 9 -26365382.223 7  22358468.486    22358473.222       -4060.359
     -3149.562
  21146423.841 9 -57659376.591 7  19276104.168    19276106.439       -2443.311
     -1903.593
  32542059.975 9 -36711908.883 9  20898137.159    20898141.548       -2264.661
     -1760.359
  -3886937.686 9 -29448217.561 8  19043916.077    19043918.909        -295.219
      -232.538
 88  3 27  6 38 41.0800000  0  4G 6G 9G11G13
  45929838.873 9 -26270453.576 8  22381653.090    22381655.347       -4064.840
     -3158.597
  21220094.169 9 -57601971.135 7  19290122.776    19290125.534       -2464.268
     -1921.650
  32610085.088 9 -36658902.327 9  20911083.086    20911086.402       -2272.612
     -1763.056
  -3877807.738 9 -29441103.307 7  19045655.041    19045656.554        -312.037
      -242.915
 88  3 27  6 39 11.0800000  0  4G 6G 9G11G13
  46051829.191 8 -26175396.229 9  22404867.734    22404869.765       -4051.452
     -3180.438
  21294314.474 9 -57544137.153 7  19304247.741    19304248.575       -2478.853
     -1923.365
  32678169.662 9 -36605849.452 9  20924039.398    20924042.487       -2270.060
     -1766.641
  -3868362.840 8 -29433743.648 8  19047451.538    19047454.973        -313.257
      -258.170
 88  3 27  6 39 41.0800000  0  4G 6G 9G11G13
  46173983.735 8 -26080210.919 8  22428112.217    22428113.625       -4066.451
     -3177.872
  21369084.336 9 -57485874.921 7  19318475.582    19318476.902       -2500.383
     -1941.391
  32746314.156 9 -36552749.857 9  20937006.478    20937009.108       -2276.248
     -1766.858
  -3858602.069 9 -29426137.840 8  19049308.824    19049311.454        -326.143
      -254.579
 88  3 27  6 40 11.0800000  0  4G 6G 9G11G13
  46296299.099 9 -25984900.269 9  22451387.952    22451390.392       -4093.014
     -3171.932
  21444401.115 9 -57427186.545 7  19332806.915    19332809.086       -2518.605
     -1956.615
  32814516.537 9 -36499605.193 8  20949985.094    20949988.280       -2263.601
     -1765.137
  -3848528.308 9 -29418288.147 7  19051227.309    19051229.040        -344.133
      -270.138
 88  3 27  6 40 41.0800000  0  4G 6G 9G11G13
  46418772.568 8 -25889466.425 8  22474694.166    22474696.387       -4086.898
     -3182.570
  21520262.809 9 -57368073.564 8  19347243.453    19347245.818       -2536.770
     -1978.960
  32882775.884 9 -36446416.124 8  20962973.455    20962978.145       -2263.170
     -1768.431
  -3838142.955 8 -29410195.654 8  19053202.514    19053204.493        -351.430
      -268.311
 88  3 27  6 41 11.0800000  0  4G 6G 9G11G13
  46541400.889 8 -25793911.968 8  22498027.532    22498032.656       -4108.372
     -3188.144
  21596666.748 9 -57308538.058 9  19361782.963    19361785.650       -2554.561
     -1984.944
  32951090.459 9 -36393184.000 8  20975974.500    20975978.660       -2273.617
     -1782.934
  -3827447.273 9 -29401861.343 8  19055236.717    19055240.476        -355.449
      -287.238
 88  3 27  6 41 41.0800000  0  4G 6G 9G11G13
  46664180.477 8 -25698239.591 7  22521393.830    22521396.804       -4095.143
     -3204.225
  21673609.872 8 -57248582.404 8  19376425.044    19376426.939       -2562.193
     -2006.369
  33019458.103 9 -36339910.507 8  20988983.820    20988986.776       -2286.001
     -1777.422
  -3816443.590 9 -29393287.033 8  19057331.504    19057333.527        -372.044
      -286.002
 88  3 27  6 42 11.0800000  0  4G 6G 9G11G13
  46787108.697 8 -25602451.419 8  22544785.649    22544789.581       -4105.422
     -3190.082
  21751090.387 9 -57188207.981 8  19391168.258    19391170.061       -2583.596
     -2026.240
  33087877.748 9 -36286596.456 8  21002003.663    21002007.403       -2286.200
     -1771.854
  -3805133.780 9 -29384474.176 8  19059483.954    19059485.712        -392.354
      -295.720
 88  3 27  6 42 41.0800000  0  3G 9G11G13
  21829105.537 9 -57127416.979 8  19406014.527    19406017.174       -2621.538
     -2015.422
  33156347.624 9 -36233243.320 9  21015032.711    21015036.690       -2279.215
     -1767.989
  -3793519.307 9 -29375423.942 8  19061694.266    19061694.817        -389.340
      -313.100
 88  3 27  6 43 11.0800000  0  4G 3G 9G11G13
 -44675106.317 8  56594906.718 8  21361390.120    21361393.110        2081.897
      1621.779
  21907653.348 1 -57066210.927 1  19420961.665    19420964.966       -2626.538
     -2034.915
  33224866.873 9 -36179851.727 9  21028071.585    21028075.639       -2285.562
     -1781.262
  -3781602.006 9 -29366137.710 8  19063960.867    19063964.016        -404.499
      -315.188
 88  3 27  6 43 41.0800000  0  4G 3G 9G11G13
 -44737185.353 9  56546533.500 8  21349576.822    21349580.259        2055.813
      1598.894
  21986730.456 9 -57004592.413 8  19436008.716    19436011.277       -2649.480
     -2040.116
  33293433.057 9 -36126423.594 9  21041119.845    21041123.636       -2268.609
     -1791.602
  -3769384.384 9 -29356617.485 8  19066285.660    19066289.436        -399.938
      -319.215
 88  3 27  6 44 11.0800000  0  4G 3G 9G11G13
 -44799023.388 9  56498348.040 8  21337808.578    21337812.185        2056.411
      1607.226
  22066330.165 9 -56942566.688 8  19451157.081    19451159.222       -2661.752
     -2075.317
  33362040.616 9 -36072963.204 8  21054174.608    21054178.737       -2289.063
     -1778.279
  -3756871.934 9 -29346867.520 8  19068667.586    19068670.179        -421.772
      -318.195
 88  3 27  6 44 41.0800000  0  4G 3G 9G11G13
 -44860629.701 9  56450343.172 8  21326085.110    21326089.244        2053.309
      1593.873
  22146441.077 9 -56880142.627 7  19466401.151    19466402.564       -2671.106
     -2087.390
  33430679.137 9 -36019478.701 9  21067236.245    21067239.955       -2282.205
     -1783.126
  -3744076.252 9 -29336896.856 8  19071103.430    19071104.980        -421.907
      -345.294
 88  3 27  6 45 11.0800000  0  4G 3G 9G11G13
 -44922000.169 9  56402522.076 8  21314407.298    21314410.797        2049.178
      1587.908
  22227064.815 9 -56817318.953 7  19481742.602    19481745.316       -2694.846
     -2120.056
  33499351.803 9 -35965967.570 9  21080305.062    21080308.244       -2288.832
     -1780.305
  -3730994.171 9 -29326703.007 7  19073592.271    19073594.075        -460.439
      -333.077
 88  3 27  6 45 41.0800000  0  4G 3G 9G11G13
 -44983125.726 9  56354891.809 8  21302775.973    21302779.753        2033.884
      1588.057
  22308208.113 9 -56754090.423 7  19497184.507    19497187.222       -2703.873
     -2112.488
  33568066.406 9 -35912423.759 8  21093381.353    21093383.378       -2290.522
     -1775.607
  -3717618.140 9 -29316280.118 8  19076137.909    19076140.198        -455.001
      -355.863
 88  3 27  6 46 11.0800000  0  4G 3G 9G11G13
 -45044004.784 9  56307453.631 8  21291190.510    21291194.724        2029.442
      1588.579
  22389870.333 9 -56690457.541 7  19512724.557    19512726.563       -2731.640
     -2125.151
  33636823.340 9 -35858846.910 8  21106465.241    21106468.378       -2284.741
     -1784.990
  -3703948.221 9 -29305628.236 8  19078738.336    19078742.429        -449.554
      -369.813
 88  3 27  6 46 41.0800000  0  4G 3G 9G11G13
 -45104641.908 9  56260203.970 8  21279652.316    21279655.021        2014.633
      1582.595
  22472044.260 9 -56626425.914 7  19528361.218    19528363.740       -2746.432
     -2136.603
  33705616.709 9 -35805241.675 9  21119555.940    21119558.963       -2285.833
     -1783.549
  -3689990.723 9 -29294752.282 8  19081394.978    19081396.864        -465.734
      -373.448
 88  3 27  6 47 11.0800000  0  4G 3G 9G11G13
 -45165038.799 9  56213141.513 9  21268158.721    21268161.962        2012.241
      1568.440
  22554725.884 8 -56561998.691 7  19544096.656    19544097.885       -2769.941
     -2149.478
  33774443.909 9 -35751610.080 8  21132652.959    21132656.069       -2282.309
     -1780.485
  -3675748.787 9 -29283654.664 7  19084105.449    19084106.996        -478.932
      -373.473
 88  3 27  6 47 41.0800000  0  4G 3G 9G11G13
 -45225193.901 9  56166267.477 8  21256710.591    21256715.554        2002.999
      1554.043
  22637914.947 9 -56497176.057 7  19559925.420    19559927.618       -2780.738
     -2170.015
  33843305.673 9 -35697951.564 9  21145757.516    21145760.958       -2302.755
     -1785.264
  -3661222.122 9 -29272335.163 7  19086869.719    19086871.754        -486.420
      -366.346
 88  3 27  6 48 11.0800000  0  4G 3G 9G11G13
 -45285104.086 9  56119584.261 8  21245310.387    21245314.851        2004.386
      1540.285
  22721611.974 9 -56431957.628 7  19575853.326    19575854.555       -2799.549
     -2171.916
  33912203.684 9 -35644264.803 9  21158867.192    21158871.660       -2296.583
     -1790.657
  -3646409.245 9 -29260792.663 7  19089689.325    19089689.714        -508.413
      -389.673
 88  3 27  6 48 41.0800000  0  4G 3G 9G11G13
 -45344772.316 9  56073089.570 8  21233955.610    21233960.497        1995.926
      1546.275
  22805811.232 8 -56366347.829 7  19591876.139    19591877.223       -2794.047
     -2185.096
  33981133.961 9 -35590552.922 8  21171985.581    21171988.050       -2302.484
     -1785.245
  -3631314.643 9 -29249030.620 7  19092560.688    19092561.624        -508.206
      -380.514
 88  3 27  6 49 11.0800000  0  4G 3G 9G11G13
 -45404200.330 9  56026782.063 8  21222646.510    21222651.107        1967.896
      1531.114
  22890508.791 9 -56300349.762 7  19607992.850    19607995.153       -2838.361
     -2220.471
  34050093.826 9 -35536817.981 9  21185107.456    21185111.628       -2306.894
     -1785.811
  -3615941.777 9 -29237051.754 7  19095485.179    19095488.071        -513.222
      -394.352
 88  3 27  6 49 41.0800000  0  4G 3G 9G11G13
 -45463387.111 9  55980662.546 8  21211383.905    21211388.875        1976.596
      1528.933
  22975703.286 9 -56233964.461 6  19624204.974    19624205.172       -2857.818
     -2219.508
  34119083.235 9 -35483059.992 9  21198235.514    21198239.614       -2304.071
     -1785.922
  -3600290.700 9 -29224856.101 8  19098463.769    19098467.167        -523.891
      -411.272
 88  3 27  6 50 11.0800000  0  4G 3G 9G11G13
 -45522332.934 9  55934730.806 8  21200167.638    21200170.647        1963.215
      1527.423
  23061392.600 9 -56167193.607 7  19640512.073    19640512.311       -2873.153
     -2242.089
  34188101.502 9 -35429279.531 9  21211369.765    21211373.376       -2296.447
     -1789.812
  -3584362.605 9 -29212444.605 8  19101494.745    19101497.444        -543.205
      -413.471
 88  3 27  6 50 41.0800000  0  4G 3G 9G11G13
 -45581039.215 9  55888985.691 7  21188995.702    21188999.826        1949.929
      1515.076
  23147572.815 8 -56100040.203 7  19656910.009    19656913.236       -2870.736
     -2269.293
  34257146.096 9 -35375478.578 9  21224508.457    21224511.826       -2298.194
     -1790.334
  -3568160.488 9 -29199819.565 8  19104578.026    19104581.090        -545.095
      -418.293
 88  3 27  6 51 11.0800000  0  4G 3G 9G11G13
 -45639506.632 9  55843426.708 8  21177869.326    21177873.793        1942.673
      1518.239
  23234240.351 9 -56032507.088 7  19673403.109    19673405.488       -2902.076
     -2244.108
  34326214.815 9 -35321658.847 8  21237651.822    21237655.292       -2294.390
     -1783.294
  -3551686.875 9 -29186982.971 8  19107714.350    19107714.732        -551.172
      -420.157
 88  3 27  6 51 41.0800000  0  4G 3G 9G11G13
 -45697733.436 9  55798055.219 8  21166789.012    21166793.178        1939.898
      1505.960
  23321395.114 8 -55964594.302 8  19689987.165    19689989.942       -2920.337
     -2269.895
  34395308.878 9 -35267819.326 9  21250799.893    21250803.595       -2317.914
     -1787.606
  -3534941.635 9 -29173934.723 8  19110899.614    19110901.480        -563.954
      -445.994
 88  3 27  6 52 11.0800000  0  4G 3G 9G11G13
 -45755719.391 9  55752871.413 8  21155755.764    21155758.638        1934.499
      1509.738
  23409034.374 8 -55896303.980 7  19706663.381    19706666.731       -2935.959
     -2280.943
  34464427.987 9 -35213960.275 8  21263952.289    21263956.266       -2287.731
     -1803.806
  -3517925.562 9 -29160675.444 7  19114137.547    19114140.139        -577.423
      -422.090
 88  3 27  6 52 41.0800000  0  4G 3G 9G11G13
 -45813465.695 9  55707874.321 7  21144766.029    21144769.293        1912.051
      1503.972
  23497154.752 9 -55827638.770 7  19723433.528    19723436.671       -2956.030
     -2292.085
  34533569.920 9 -35160083.438 9  21277110.773    21277113.324       -2293.648
     -1795.330
  -3500641.253 9 -29147207.149 7  19117427.058    19117429.379        -581.825
      -445.659
 88  3 27  6 53 11.0800000  0  4G 3G 9G11G13
 -45870973.550 8  55663063.057 8  21133822.490    21133825.839        1895.050
      1492.787
  23585752.760 8 -55758601.393 7  19740293.599    19740294.793       -2949.595
     -2284.448
  34602732.436 9 -35106190.573 9  21290271.561    21290275.048       -2305.681
     -1782.629
  -3483091.020 9 -29133531.649 8  19120766.004    19120768.164        -577.288
      -455.253
 88  3 27  6 53 41.0800000  0  4G 3G 9G11G13
 -45928242.719 9  55618437.789 9  21122925.054    21122929.103        1900.345
      1503.568
  23674826.300 9 -55689193.462 6  19757242.638    19757246.791       -2972.138
     -2314.106
  34671914.846 9 -35052282.224 9  21303436.528    21303440.225       -2311.814
     -1800.717
  -3465276.256 9 -29119649.994 7  19124156.419    19124158.830        -594.074
      -466.400
 88  3 27  6 54 11.0800000  0  4G 3G 9G11G13
 -45985273.988 9  55573997.893 7  21112072.066    21112075.649        1894.061
      1491.470
  23764371.510 8 -55619417.983 7  19774282.408    19774285.795       -2973.582
     -2321.936
  34741115.217 9 -34998359.867 8  21316605.161    21316607.956       -2305.363
     -1797.014
  -3447199.596 9 -29105564.295 7  19127596.213    19127599.146        -606.864
      -479.810
 88  3 27  6 54 41.0800000  0  4G 3G 9G11G13
 -46042066.929 9  55529743.722 8  21101263.819    21101268.525        1888.934
      1473.860
  23854386.913 9 -55549276.118 7  19791412.346    19791415.336       -3027.289
     -2320.942
  34810333.606 9 -34944423.473 9  21329776.202    21329780.059       -2321.032
     -1800.898
  -3428861.212 9 -29091274.620 7  19131086.413    19131088.562        -602.909
      -484.799
 88  3 27  6 55 11.0800000  0  4G 3G 9G11G13
 -46098623.241 9  55485673.922 8  21090502.358    21090506.777        1881.063
      1478.340
  23944868.088 8 -55478771.328 8  19808631.428    19808633.485       -3022.249
     -2359.237
  34879567.880 9 -34890474.630 8  21342951.521    21342954.916       -2307.954
     -1799.872
  -3410264.896 9 -29076783.978 8  19134624.895    19134627.172        -623.738
      -478.524
 88  3 27  6 55 41.0800000  0  4G 3G 9G11G13
 -46154942.080 9  55441789.145 8  21079785.054    21079789.343        1870.082
      1467.963
  24035813.693 9 -55407904.627 8  19825936.585    19825938.545       -3025.909
     -2365.376
  34948817.890 8 -34836513.544 8  21356128.513    21356132.631       -2320.554
     -1789.862
  -3391410.562 9 -29062092.287 7  19138212.474    19138214.938        -619.368
      -475.031
 88  3 27  6 56 11.0800000  0  4G 3G 9G11G13
 -46211023.497 9  55398089.393 8  21069113.807    21069117.091        1868.384
      1454.821
  24127220.730 9 -55336678.398 8  19843332.339    19843334.766       -3068.181
     -2381.141
  35018082.374 8 -34782541.192 9  21369307.949    21369313.466       -2313.879
     -1792.055
  -3372300.263 9 -29047201.129 8  19141849.207    19141851.953        -639.400
      -505.293
 88  3 27  6 56 41.0800000  0  4G 3G 9G11G13
 -46266868.335 9  55354573.976 8  21058486.202    21058489.661        1861.948
      1455.318
  24219086.039 9 -55265095.063 7  19860814.326    19860815.262       -3075.127
     -2393.761
  35087360.143 9 -34728558.519 9  21382492.392    21382496.470       -2299.350
     -1804.694
  -3352935.594 9 -29032111.770 8  19145533.226    19145537.086        -650.819
      -500.092
 88  3 27  6 57 11.0800000  0  4G 3G 9G11G13
 -46322476.696 9  55311242.845 8  21047904.852    21047907.506        1844.732
      1427.561
  24311407.151 9 -55193156.553 7  19878381.575    19878383.579       -3086.116
     -2399.260
  35156650.254 9 -34674566.236 9  21395678.594    21395681.336       -2313.975
     -1795.877
  -3333318.284 9 -29016825.550 8  19149267.710    19149269.472        -665.596
      -514.551
 88  3 27  6 57 41.0800000  0  4G 3G 9G11G13
 -46377849.266 9  55268095.429 9  21037367.678    21037371.147        1840.697
      1443.232
  24404180.995 9 -55120865.251 7  19896035.431    19896037.477       -3112.646
     -2417.230
  35225951.407 9 -34620565.379 9  21408866.141    21408868.810       -2316.694
     -1798.070
  -3313450.081 9 -29001343.824 8  19153047.061    19153049.961        -668.490
      -517.944
 88  3 27  6 58 11.0800000  0  4G 3G 9G11G13
 -46432985.843 9  55225131.892 8  21026874.716    21026878.714        1836.056
      1438.665
  24497405.250 9 -55048222.982 7  19913775.713    19913777.777       -3110.509
     -2407.375
  35295263.563 8 -34566555.911 8  21422055.804    21422059.200       -2313.552
     -1802.308
  -3293332.311 9 -28985667.625 8  19156876.154    19156878.553        -661.959
      -534.466
 88  3 27  6 58 41.0800000  0  4G 3G 9G11G13
 -46487887.350 9  55182351.561 8  21016427.767    21016431.149        1826.901
      1439.050
  24591076.073 9 -54975232.747 7  19931599.457    19931601.740       -3129.233
     -2423.022
  35364585.044 9 -34512539.159 9  21435246.197    21435250.447       -2293.162
     -1802.339
  -3272967.188 9 -28969798.680 8  19160751.048    19160753.780        -685.228
      -514.501
 88  3 27  6 59 11.0800000  0  4G 3G 9G11G13
 -46542555.336 9  55139753.157 8  21006024.418    21006028.753        1828.049
      1410.889
  24685189.849 9 -54901897.352 8  19949508.979    19949511.588       -3140.517
     -2429.658
  35433913.378 8 -34458517.085 8  21448439.374    21448444.040       -2301.981
     -1806.074
  -3252356.906 9 -28953738.723 7  19164673.731    19164676.073        -679.272
      -527.128
 88  3 27  6 59 41.0800000  0  4G 3G 9G11G13
 -46596989.449 9  55097337.016 8  20995666.508    20995669.541        1825.960
      1408.702
  24779744.344 8 -54828218.545 6  19967501.598    19967505.718       -3163.946
     -2442.539
  35503248.357 8 -34404489.849 8  21461633.039    21461637.751       -2299.772
     -1792.341
  -3231503.378 9 -28937489.228 8  19168641.991    19168643.625        -692.254
      -535.125
 88  3 27  7  0 11.0800000  0  4G 3G 9G11G13
 -46651189.720 8  55055103.102 8  20985352.639    20985356.112        1791.862
      1408.715
  24874736.762 9 -54754198.482 7  19985578.267    19985581.530       -3169.336
     -2462.914
  35572589.133 9 -34350458.089 8  21474829.376    21474832.490       -2314.342
     -1791.602
  -3210407.468 9 -28921050.831 7  19172656.391    19172658.713        -711.871
      -543.340
 88  3 27  7  0 41.0800000  0  4G 3G 9G11G13
 -46705156.732 8  55013050.939 8  20975081.574    20975086.933        1801.917
      1403.775
  24970165.147 9 -54679838.714 8  20003739.303    20003740.948       -3189.144
     -2493.927
  35641935.249 9 -34296422.163 9  21488024.705    21488028.459       -2304.039
     -1793.994
  -3189070.516 9 -28904424.636 8  19176715.706    19176718.700        -723.745
      -530.987
 88  3 27  7  1 11.0800000  0  4G 3G 9G11G13
 -46758891.471 8  54971179.749 7  20964856.327    20964861.815        1790.107
      1396.921
  25066024.594 9 -54605143.057 8  20021980.069    20021982.006       -3203.299
     -2495.537
  35711284.485 8 -34242383.801 9  21501221.043    21501225.967       -2302.906
     -1801.780
  -3167495.304 9 -28887612.772 8  19180822.127    19180824.254        -716.121
      -549.603
 88  3 27  7  1 41.0800000  0  4G 3G 9G11G13
 -46812394.026 9  54929489.497 8  20954675.732    20954678.960        1758.497
      1399.357
  25162312.773 8 -54530113.322 8  20040303.821    20040304.523       -3222.772
     -2505.031
  35780636.377 8 -34188343.370 9  21514419.454    21514423.165       -2307.213
     -1801.413
  -3145683.105 9 -28870616.278 8  19184972.766    19184976.758        -731.631
      -570.991
 88  3 27  7  2 11.0800000  0  4G 3G 9G11G13
 -46865664.807 8  54887979.838 8  20944538.247    20944542.694        1762.660
      1382.884
  25259026.782 9 -54454751.779 7  20058707.148    20058709.895       -3225.061
     -2521.262
  35849990.308 8 -34134301.346 9  21527617.111    21527620.709       -2307.611
     -1792.024
  -3123635.748 9 -28853436.503 8  19189168.259    19189170.904        -735.323
      -577.950
 88  3 27  7  2 41.0800000  0  4G 3G 9G11G13
 -46918704.511 9  54846650.261 8  20934445.584    20934450.318        1769.183
      1381.741
  25356163.291 9 -54379061.005 8  20077191.609    20077193.834       -3249.686
     -2519.143
  35919344.741 8 -34080258.899 9  21540814.612    21540817.963       -2302.412
     -1801.699
  -3101354.927 9 -28836074.829 8  19193408.673    19193411.369        -734.398
      -581.797
 88  3 27  7  3 11.0800000  0  4G 3G 9G11G13
 -46971513.044 9  54805500.784 8  20924396.377    20924400.778        1759.574
      1363.118
  25453719.725 9 -54303043.017 7  20095756.406    20095758.761       -3263.976
     -2546.496
  35988699.485 9 -34026216.220 8  21554011.859    21554014.698       -2304.517
     -1790.303
  -3078841.773 9 -28818532.111 8  19197692.460    19197695.322        -755.849
      -590.123
 88  3 27  7  3 41.0800000  0  4G 3G 9G11G13
 -47024090.920 8  54764531.050 8  20914390.980    20914394.283        1752.516
      1370.481
  25551693.162 8 -54226700.089 8  20114399.220    20114402.700       -3267.652
     -2544.526
  36058053.190 9 -33972174.369 8  21567209.269    21567213.266       -2307.619
     -1795.908
  -3056097.990 9 -28800809.675 7  19202020.733    19202021.814        -755.929
      -592.317
 88  3 27  7  4 11.0800000  0  4G 3G 9G11G13
 -47076438.748 8  54723740.566 8  20904430.264    20904431.792        1744.837
      1363.031
  25650080.968 8 -54150034.287 7  20133122.153    20133123.573       -3278.417
     -2551.417
  36127404.961 9 -33918134.030 9  21580406.006    21580410.234       -2314.142
     -1798.257
  -3033125.553 9 -28782909.056 8  19206391.369    19206394.295        -773.919
      -599.431
 88  3 27  7  4 41.0800000  0  4G 3G 9G11G13
 -47128558.356 9  54683127.916 7  20894511.415    20894515.578        1720.986
      1364.976
  25748878.419 9 -54073049.286 8  20151922.732    20151925.300       -3290.977
     -2565.268
  36196752.874 9 -33864096.729 9  21593602.268    21593608.253       -2308.672
     -1805.098
  -3009926.992 9 -28764832.253 9  19210806.382    19210807.987        -777.276
      -599.754
 88  3 27  7  5 11.0800000  0  4G 3G 9G11G13
 -47180450.705 9  54642692.379 7  20884636.944    20884639.720        1730.483
      1364.168
  25848081.670 8 -53995748.055 7  20170799.730    20170803.801       -3321.487
     -2572.295
  36266095.282 9 -33810063.639 9  21606799.582    21606802.817       -2304.461
     -1803.719
  -2986504.504 9 -28746580.974 7  19215263.448    19215265.702        -797.523
      -598.126
 88  3 27  7  5 41.0800000  0  4G 3G 9G11G13
 -47232114.180 9  54602435.154 8  20874805.568    20874809.675        1722.445
      1337.070
  25947689.872 9 -53918131.277 8  20189755.459    20189759.156       -3325.275
     -2592.577
  36335433.232 8 -33756034.067 8  21619993.351    21619996.690       -2314.621
     -1803.246
  -2962858.175 9 -28728155.247 8  19219763.602    19219766.103        -785.538
      -622.764
 88  3 27  7  6 11.0800000  0  4G 3G 9G11G13
 -47283548.399 9  54562356.566 7  20865018.393    20865021.153        1717.126
      1330.732
  26047700.325 9 -53840201.072 7  20208786.285    20208790.415       -3344.286
     -2594.373
  36404766.529 9 -33702008.102 9  21633186.783    21633190.822       -2304.302
     -1799.313
  -2938988.750 9 -28709555.697 8  19224305.736    19224306.859        -798.201
      -624.119
 88  3 27  7  6 41.0800000  0  4G 3G 9G11G13
 -47334755.602 9  54522454.895 7  20855274.360    20855276.995        1701.560
      1331.738
  26148109.324 9 -53761960.310 7  20227894.956    20227896.418       -3353.073
     -2622.279
  36474093.263 8 -33647987.266 9  21646379.041    21646382.294       -2306.224
     -1793.062
  -2914898.569 9 -28690784.114 8  19228890.029    19228892.785        -817.029
      -633.383
 88  3 27  7  7 11.0800000  0  4G 3G 9G11G13
 -47385736.686 9  54482729.416 8  20845572.935    20845576.490        1682.358
      1318.410
  26248912.552 9 -53683412.344 9  20247076.852    20247078.077       -3364.485
     -2608.640
  36543411.596 8 -33593972.972 9  21659570.778    21659573.873       -2311.933
     -1799.829
  -2890591.165 9 -28671843.265 8  19233514.442    19233517.821        -800.235
      -638.336
 88  3 27  7  7 41.0800000  0  4G 3G 9G11G13
 -47436491.883 9  54443179.936 8  20835913.219    20835916.694        1677.908
      1318.944
  26350107.589 9 -53604559.072 8  20266333.893    20266335.807       -3366.662
     -2629.997
  36612721.366 9 -33539965.342 9  21672759.670    21672762.280       -2316.423
     -1800.637
  -2866067.429 9 -28652733.843 7  19238182.016    19238183.400        -821.359
      -651.304
 88  3 27  7  8 11.0800000  0  4G 3G 9G11G13
 -47487021.318 9  54403806.379 8  20826298.387    20826302.785        1673.052
      1312.376
  26451691.656 9 -53525402.678 8  20285664.338    20285667.363       -3395.170
     -2646.631
  36682021.832 9 -33485964.967 9  21685946.491    21685950.544       -2304.852
     -1800.357
  -2841328.123 9 -28633456.461 7  19242888.822    19242892.735        -824.780
      -645.258
 88  3 27  7  8 41.0800000  0  4G 3G 9G11G13
 -47537325.085 9  54364608.671 8  20816725.653    20816728.626        1673.969
      1308.890
  26553661.600 9 -53445945.612 7  20305068.744    20305070.474       -3403.958
     -2644.382
  36751312.415 9 -33431972.305 8  21699132.200    21699136.026       -2315.817
     -1803.396
  -2816374.554 9 -28614012.118 7  19247637.574    19247640.984        -841.039
      -644.512
 88  3 27  7  9 11.0800000  0  4G 3G 9G11G13
 -47587404.171 9  54325586.028 8  20807196.128    20807198.551        1648.722
      1303.534
  26656014.287 9 -53366190.281 8  20324544.549    20324547.604       -3422.777
     -2652.932
  36820592.190 9 -33377988.045 9  21712314.854    21712320.225       -2306.886
     -1798.754
  -2791209.095 9 -28594402.662 7  19252426.792    19252429.657        -834.724
      -667.684
 88  3 27  7  9 41.0800000  0  4G 3G 9G11G13
 -47637259.728 9  54286737.574 8  20797709.327    20797711.931        1663.132
      1311.773
  26758746.520 9 -53286139.186 8  20344093.779    20344096.347       -3426.844
     -2670.467
  36889860.159 8 -33324012.994 9  21725497.055    21725500.878       -2306.208
     -1800.630
  -2765833.390 9 -28574629.402 8  19257255.846    19257258.744        -852.722
      -667.739
 88  3 27  7 10 11.0800000  0  4G 3G 9G11G13
 -47686892.395 9  54248062.813 8  20788262.919    20788267.050        1647.406
      1297.612
  26861854.151 9 -53205795.573 7  20363715.207    20363717.339       -3431.158
     -2681.931
  36959114.846 9 -33270048.304 8  21738675.096    21738679.892       -2300.355
     -1798.375
  -2740249.558 9 -28554693.952 8  19262124.026    19262127.695        -853.152
      -667.180
 88  3 27  7 10 41.0800000  0  4G 3G 9G11G13
 -47736303.367 9  54209560.816 8  20778860.967    20778864.201        1642.327
      1292.554
  26965333.701 8 -53125162.167 8  20383405.676    20383409.593       -3450.145
     -2694.098
  37028354.895 9 -33216095.006 9  21751852.339    21751854.877       -2304.924
     -1791.589
  -2714460.064 9 -28534598.245 8  19267032.382    19267034.371        -871.151
      -684.013
 88  3 27  7 11 11.0800000  0  4G 3G 9G11G13
 -47785491.179 9  54171232.681 8  20769500.309    20769503.765        1631.936
      1272.838
  27069183.535 9 -53044240.231 7  20403167.670    20403171.004       -3463.694
     -2695.154
  37097581.293 9 -33162152.362 9  21765025.368    21765029.137       -2312.340
     -1799.475
  -2688464.147 9 -28514341.663 7  19271979.368    19271980.724        -865.154
      -666.484
 88  3 27  7 11 41.0800000  0  4G 3G 9G11G13
 -47834456.152 8  54133078.198 8  20760183.957    20760187.034        1623.459
      1269.681
  27173401.082 8 -52963031.774 8  20423000.248    20423002.657       -3476.524
     -2708.036
  37166794.112 9 -33108220.287 9  21778195.235    21778199.543       -2293.265
     -1797.697
  -2662263.625 9 -28493925.688 8  19276964.124    19276967.036        -877.291
      -688.177
 88  3 27  7 12 11.0800000  0  4G 3G 9G11G13
 -47883200.045 9  54095095.967 8  20750907.313    20750910.802        1629.544
      1263.082
  27277982.119 9 -52881540.073 7  20442902.037    20442904.261       -3490.232
     -2706.762
  37235991.182 9 -33054300.493 9  21791363.449    21791367.366       -2321.925
     -1791.919
  -2635860.910 9 -28473352.142 9  19281989.318    19281990.818        -884.986
      -676.631
 88  3 27  7 12 41.0800000  0  3G 3G 9G13
 -47931723.533 8  54057285.513 9  20741672.486    20741677.655        1630.676
      1259.155
  27382923.278 9 -52799767.743 7  20462871.159    20462873.665       -3494.395
     -2734.997
  -2609257.476 9 -28452622.174 9  19287051.624    19287052.913        -879.149
      -703.456
 88  3 27  7 13 11.0800000  0  3G 3G 9G13
 -47980027.069 8  54019646.440 8  20732481.393    20732485.146        1604.871
      1252.624
  27488221.278 9 -52717717.362 8  20482909.299    20482911.181       -3515.950
     -2734.307
  -2582455.699 9 -28431737.668 8  19292151.460    19292154.399        -906.708
      -710.490
 88  3 27  7 13 41.0800000  0  3G 3G 9G13
 -48028110.993 8  53982178.492 9  20723332.316    20723336.089        1607.048
      1250.431
  27593873.469 9 -52635391.005 8  20503014.007    20503015.884       -3525.128
     -2754.260
  -2555456.265 9 -28410699.166 8  19297288.860    19297290.623        -901.174
      -716.045
 88  3 27  7 14 11.0800000  0  3G 3G 9G13
 -48075976.326 8  53944880.881 8  20714221.999    20714226.604        1601.953
      1242.757
  27699876.057 9 -52552791.606 8  20523185.030    20523187.839       -3537.600
     -2757.050
  -2528261.240 9 -28389508.237 7  19302464.788    19302466.256        -914.986
      -691.147
 88  3 27  7 14 41.0800000  0  3G 3G 9G13
 -48123623.295 9  53907753.405 9  20705156.786    20705159.282        1591.713
      1226.458
  27806225.954 9 -52469921.572 8  20543422.697    20543425.682       -3551.547
     -2756.217
  -2500871.670 9 -28368165.710 8  19307676.430    19307678.945        -913.287
      -727.205
 88  3 27  7 15 11.0800000  0  3G 3G 9G13
 -48171051.436 8  53870796.438 8  20696131.037    20696134.990        1580.844
      1219.250
  27912921.198 8 -52386782.428 8  20563726.209    20563728.622       -3560.151
     -2761.654
  -2473287.984 9 -28346671.961 8  19312924.927    19312926.921        -919.164
      -724.185
 88  3 27  7 15 41.0800000  0  3G 3G 9G13
 -48218260.868 9  53834009.899 8  20687147.607    20687150.429        1574.505
      1232.050
  28019958.714 9 -52303376.574 8  20584095.156    20584097.205       -3563.230
     -2788.429
  -2445511.796 9 -28325028.169 9  19318210.331    19318214.101        -922.928
      -721.924
 88  3 27  7 16 11.0800000  0  3G 3G 9G13
 -48265252.820 9  53797392.826 9  20678205.460    20678208.742        1566.275
      1206.785
  28127335.104 9 -52219706.677 7  20604528.172    20604531.875       -3595.223
     -2787.392
  -2417544.907 9 -28303235.795 9  19323533.091    19323535.590        -916.612
      -730.144
 88  3 27  7 16 41.0800000  0  3G 3G 9G13
 -48312028.151 9  53760944.549 9  20669304.551    20669307.336        1551.929
      1220.294
  28235046.488 9 -52135775.736 8  20625025.263    20625027.325       -3595.669
     -2812.601
  -2389389.213 9 -28281296.311 8  19328890.898    19328893.810        -939.499
      -734.382
 88  3 27  7 17 11.0800000  0  3G 3G 9G13
 -48358588.579 9  53724663.726 8  20660444.062    20660447.543        1548.317
      1209.575
  28343088.768 9 -52051586.966 9  20645585.467    20645586.991       -3609.879
     -2811.159
  -2361047.566 9 -28259211.895 8  19334284.348    19334287.486        -947.513
      -747.543
 88  3 27  7 17 41.0800000  0  3G 3G 9G13
 -48404934.544 9  53688550.033 8  20651624.546    20651628.285        1556.363
      1199.503
  28451458.791 9 -51967142.796 8  20666207.184    20666209.822       -3612.041
     -2815.683
  -2332520.922 9 -28236983.346 8  19339712.812    19339713.834        -954.044
      -724.583
 88  3 27  7 18 11.0800000  0  3G 3G 9G13
 -48451066.269 8  53652603.275 8  20642845.151    20642848.864        1536.284
      1195.458
  28560153.686 9 -51882445.482 9  20686891.310    20686893.234       -3625.852
     -2824.674
  -2303810.981 9 -28214611.972 8  19345176.017    19345178.620        -958.191
      -750.600
 88  3 27  7 18 41.0800000  0  3G 3G 9G13
 -48496985.264 8  53616822.266 8  20634107.299    20634109.969        1526.308
      1187.752
  28669169.388 9 -51797498.182 8  20707635.947    20707638.402       -3645.310
     -2835.617
  -2274919.539 9 -28192099.195 8  19350673.988    19350676.982        -961.038
      -762.015
 88  3 27  7 19 11.0800000  0  3G 3G 9G13
 -48542692.245 9  53581206.477 9  20625409.700    20625413.576        1538.269
      1195.097
  28778502.628 9 -51712303.449 9  20728440.932    20728443.471       -3643.763
     -2837.288
  -2245847.980 9 -28169446.072 8  19356205.270    19356207.704        -955.448
      -739.266
 88  3 27  7 19 41.0800000  0  3G 3G 9G13
 -48588187.187 9  53545755.911 8  20616753.454    20616754.909        1509.243
      1174.206
  28888150.677 9 -51626863.417 8  20749306.509    20749309.201       -3656.402
     -2861.516
  -2216597.602 9 -28146653.546 8  19361771.446    19361773.632        -968.996
      -772.349
 88  3 27  7 20 11.0800000  0  3G 3G 9G13
 -48633470.731 9  53510470.063 9  20608136.091    20608139.171        1489.307
      1181.818
  28998110.227 9 -51541180.671 9  20770231.821    20770234.547       -3679.504
     -2864.051
  -2187169.909 9 -28123722.885 7  19367371.241    19367374.124        -981.500
      -768.310
 88  3 27  7 20 41.0800000  0  3G 3G 9G13
 -48678543.549 9  53475348.437 9  20599558.601    20599561.666        1513.916
      1167.440
  29108377.766 9 -51455257.948 9  20791214.801    20791216.984       -3679.408
     -2861.733
  -2157566.388 9 -28100655.218 8  19373004.539    19373006.811        -981.237
      -775.872
 88  3 27  7 21 11.0800000  0  3G 3G 9G13
 -48723406.938 9  53440389.987 9  20591021.374    20591023.989        1485.088
      1167.384
  29218949.633 8 -51369098.071 9  20812255.697    20812258.143       -3666.338
     -2878.828
  -2127789.096 9 -28077452.125 8  19378672.313    19378673.997        -989.203
      -764.202
 88  3 27  7 21 41.0800000  0  3G 3G 9G13
 -48768060.645 9  53405594.942 8  20582523.313    20582526.010        1477.864
      1168.577
  29329823.240 9 -51282703.082 8  20833354.977    20833356.429       -3705.994
     -2882.786
  -2097839.213 9 -28054114.549 8  19384370.513    19384373.320       -1002.241
      -774.337
 88  3 27  7 22 11.0800000  0  3G 3G 9G13
 -48812505.477 9  53370962.629 7  20574065.989    20574068.584        1487.560
      1161.841
  29440994.956 9 -51196075.765 9  20854510.375    20854512.712       -3707.055
     -2892.703
  -2067718.055 9 -28030643.536 8  19390102.404    19390105.431       -1005.160
      -787.032
 88  3 27  7 22 41.0800000  0  3G 3G 9G13
 -48856742.495 8  53336492.255 7  20565648.475    20565650.585        1461.644
      1139.204
  29552461.312 9 -51109218.882 8  20875721.595    20875723.266       -3718.115
     -2879.461
  -2037426.968 9 -28007040.077 9  19395867.627    19395869.500        -998.437
      -784.552
 88  3 27  7 23 11.0800000  0  3G 3G 9G13
 -48900773.142 9  53302182.711 9  20557270.087    20557272.199        1471.819
      1143.169
  29664218.563 9 -51022135.316 9  20896988.076    20896990.358       -3733.697
     -2904.944
  -2006968.708 9 -27983306.375 8  19401663.428    19401665.748       -1018.684
      -786.075
 88  3 27  7 23 41.0800000  0  3G 3G 9G13
 -48944597.716 9  53268033.717 8  20548929.969    20548932.340        1457.991
      1145.946
  29776263.199 9 -50934827.812 8  20918309.301    20918312.367       -3738.211
     -2918.739
  -1976344.203 9 -27959443.115 8  19407490.906    19407493.981       -1021.563
      -800.130
 88  3 27  7 24 11.0800000  0  3G 3G 9G13
 -48988219.455 8  53234042.808 9  20540628.116    20540631.978        1447.441
      1134.562
  29888589.504 9 -50847300.807 8  20939684.466    20939686.893       -3758.880
     -2920.628
  -1945557.582 9 -27935453.550 9  19413349.348    19413352.068       -1023.381
      -793.475
 88  3 27  7 24 41.0800000  0  3G 3G 9G13
 -49031640.857 9  53200207.976 9  20532366.196    20532369.675        1451.333
      1123.253
  30001192.097 8 -50759558.563 8  20961111.950    20961114.357       -3755.738
     -2935.193
  -1914612.005 9 -27911340.089 7  19419238.659    19419240.674       -1023.931
      -808.817
 88  3 27  7 25 11.0800000  0  3G 3G 9G13
 -49074861.959 8  53166529.240 9  20524140.526    20524144.084        1445.296
      1123.980
  30114068.449 9 -50671602.963 8  20982590.885    20982593.306       -3758.928
     -2935.833
  -1883508.440 9 -27887103.536 9  19425156.385    19425158.903       -1034.011
      -806.195
 88  3 27  7 25 41.0800000  0  3G 3G 9G13
 -49117882.719 9  53133006.618 8  20515954.290    20515957.757        1431.580
      1118.699
  30227216.243 9 -50583435.869 8  21004121.904    21004125.344       -3776.855
     -2941.214
  -1852246.969 9 -27862743.940 8  19431105.747    19431108.146       -1040.941
      -827.266
 88  3 27  7 26 11.0800000  0  3G 3G 9G13
 -49160703.273 9  53099639.979 9  20507806.231    20507810.039        1421.892
      1096.888
  30340632.499 9 -50495059.583 8  21025704.699    21025707.398       -3797.955
     -2951.237
  -1820829.099 9 -27838262.468 8  19437084.128    19437086.371       -1046.555
      -808.177
 88  3 27  7 26 41.0800000  0  3G 3G 9G13
 -49203323.663 9  53066429.307 8  20499696.192    20499698.961        1424.316
      1108.999
  30454314.329 9 -50406476.322 7  21047337.907    21047339.804       -3789.861
     -2946.347
  -1789256.266 9 -27813660.267 8  19443092.710    19443095.610       -1053.428
      -812.309
 88  3 27  7 27 11.0800000  0  3G 3G 9G13
 -49245743.857 9  53033374.667 9  20491622.849    20491626.742        1420.209
      1097.634
  30568259.262 9 -50317688.043 8  21069020.667    21069023.903       -3797.684
     -2970.798
  -1757527.944 9 -27788936.906 8  19449130.416    19449131.821       -1060.669
      -821.792
 88  3 27  7 27 41.0800000  0  3G 3G 9G13
 -49287964.221 8  53000475.710 8  20483587.494    20483591.826        1400.951
      1102.586
  30682464.458 9 -50228696.973 9  21090753.029    21090755.521       -3791.296
     -2970.040
  -1725645.392 9 -27764093.350 8  19455197.484    19455199.415       -1067.288
      -836.270
 88  3 27  7 28 11.0800000  0  3G 3G 9G13
 -49329985.242 9  52967732.090 9  20475592.793    20475594.856        1396.860
      1095.279
  30796926.572 9 -50139505.706 8  21112534.433    21112537.559       -3821.328
     -2975.806
  -1693610.166 9 -27739130.833 8  19461293.836    19461295.770       -1072.862
      -829.938
 88  3 27  7 28 41.0800000  0  3G 3G 9G13
 -49371807.047 9  52935143.716 9  20467633.556    20467637.669        1393.216
      1084.448
  30911642.470 9 -50050116.709 8  21134364.963    21134367.188       -3831.886
     -2980.901
  -1661423.529 9 -27714050.319 8  19467417.753    19467420.897       -1067.176
      -841.614
 88  3 27  7 29 11.0800000  0  3G 3G 9G13
 -49413430.340 9  52902710.016 8  20459713.428    20459716.863        1396.820
      1080.384
  31026609.110 9 -49960532.314 8  21156242.672    21156245.182       -3832.348
     -2984.953
  -1629086.127 9 -27688852.334 8  19473572.521    19473574.320       -1079.170
      -834.281
 88  3 27  7 29 41.0800000  0  3G 3G 9G13
 -49454855.570 9  52870430.671 8  20451831.442    20451834.335        1378.352
      1062.905
  31141823.709 8 -49870754.711 8  21178166.849    21178169.850       -3848.002
     -2984.549
  -1596599.023 9 -27663537.703 9  19479753.706    19479756.574       -1075.828
      -841.514
 88  3 27  7 30 11.0800000  0  3G 3G 9G13
 -49496082.929 9  52838305.494 8  20443985.842    20443988.387        1371.645
      1061.432
  31257282.942 9 -49780786.475 9  21200138.782    21200139.791       -3850.059
     -2995.709
  -1563963.537 9 -27638107.474 7  19485963.965    19485966.020       -1093.922
      -848.884
 88  3 27  7 30 41.0800000  0  3G 3G 9G13
 -49537113.139 8  52806333.945 9  20436177.383    20436180.039        1372.546
      1053.243
  31372983.767 9 -49690629.996 8  21222154.581    21222157.746       -3857.507
     -3012.902
  -1531181.195 9 -27612562.815 9  19492203.013    19492203.850       -1093.005
      -854.507
